Wetterdaten: Mittwoch, 06.05.2020
Datum Zeit Temp. Aussen Temp. o. S. Temp +5cm Feuchte Auss Luftdruck Regen Sonnenschein Regendauer Solar Windben Empfang
06.05.2020 00:00 7,6 C 6,1 C 5,0 C 72 % 1023,3 hPa 0,0 l/m 0 min 0 min 0 W/m 0,0 km/h (0 Bft) 100,00 %
06.05.2020 00:02 7,6 C 6,1 C 5,0 C 72 % 1023,4 hPa 0,0 l/m 0 min 0 min 0 W/m 0,0 km/h (0 Bft) 97,78 %
06.05.2020 00:04 7,6 C 6,1 C 5,0 C 72 % 1023,4 hPa 0,0 l/m 0 min 0 min 0 W/m 0,0 km/h (0 Bft) 95,74 %
06.05.2020 00:08 7,5 C 6,1 C 5,0 C 72 % 1023,4 hPa 0,0 l/m 0 min 0 min 0 W/m 0,0 km/h (0 Bft) 96,77 %
06.05.2020 00:10 7,5 C 6,1 C 5,0 C 72 % 1023,4 hPa 0,0 l/m 0 min 0 min 0 W/m 0,0 km/h (0 Bft) 97,87 %
06.05.2020 00:12 7,5 C 6,1 C 5,0 C 73 % 1023,5 hPa 0,0 l/m 0 min 0 min 0 W/m 0,0 km/h (0 Bft) 97,87 %
06.05.2020 00:14 7,4 C 6,1 C 5,0 C 73 % 1023,5 hPa 0,0 l/m 0 min 0 min 0 W/m 0,0 km/h (0 Bft) 97,87 %
06.05.2020 00:16 7,4 C 6,1 C 5,0 C 73 % 1023,5 hPa 0,0 l/m 0 min 0 min 0 W/m 0,0 km/h (0 Bft) 97,87 %
06.05.2020 00:18 7,4 C 6,1 C 5,0 C 73 % 1023,5 hPa 0,0 l/m 0 min 0 min 0 W/m 0,0 km/h (0 Bft) 97,83 %
06.05.2020 00:20 7,4 C 6,1 C 5,0 C 73 % 1023,5 hPa 0,0 l/m 0 min 0 min 0 W/m 0,0 km/h (0 Bft) 97,87 %
06.05.2020 00:22 7,4 C 6,1 C 5,0 C 73 % 1023,6 hPa 0,0 l/m 0 min 0 min 0 W/m 0,0 km/h (0 Bft) 97,87 %
06.05.2020 00:24 7,4 C 6,1 C 4,4 C 73 % 1023,6 hPa 0,0 l/m 0 min 0 min 0 W/m 0,0 km/h (0 Bft) 97,87 %
06.05.2020 00:26 7,3 C 6,1 C 5,0 C 73 % 1023,6 hPa 0,0 l/m 0 min 0 min 0 W/m 0,0 km/h (0 Bft) 97,87 %
06.05.2020 00:28 7,3 C 6,1 C 5,0 C 73 % 1023,6 hPa 0,0 l/m 0 min 0 min 0 W/m 0,0 km/h (0 Bft) 95,74 %
06.05.2020 00:30 7,3 C 6,1 C 5,0 C 73 % 1023,6 hPa 0,0 l/m 0 min 0 min 0 W/m 0,0 km/h (0 Bft) 97,83 %
06.05.2020 00:32 7,3 C 6,1 C 5,0 C 73 % 1023,5 hPa 0,0 l/m 0 min 0 min 0 W/m 0,0 km/h (0 Bft) 95,74 %
06.05.2020 00:34 7,3 C 6,1 C 5,0 C 73 % 1023,6 hPa 0,0 l/m 0 min 0 min 0 W/m 0,0 km/h (0 Bft) 91,49 %
06.05.2020 00:36 7,2 C 6,1 C 5,0 C 73 % 1023,6 hPa 0,0 l/m 0 min 0 min 0 W/m 0,0 km/h (0 Bft) 100,00 %
06.05.2020 00:38 7,2 C 6,1 C 5,0 C 73 % 1023,6 hPa 0,0 l/m 0 min 0 min 0 W/m 0,0 km/h (0 Bft) 97,87 %
06.05.2020 00:40 7,2 C 6,1 C 5,0 C 73 % 1023,6 hPa 0,0 l/m 0 min 0 min 0 W/m 0,0 km/h (0 Bft) 95,65 %
06.05.2020 00:42 7,2 C 6,1 C 5,0 C 73 % 1023,6 hPa 0,0 l/m 0 min 0 min 0 W/m 0,0 km/h (0 Bft) 95,74 %
06.05.2020 00:44 7,2 C 6,1 C 4,4 C 73 % 1023,6 hPa 0,0 l/m 0 min 0 min 0 W/m 0,0 km/h (0 Bft) 95,74 %
06.05.2020 00:46 7,2 C 6,1 C 4,4 C 73 % 1023,6 hPa 0,0 l/m 0 min 0 min 0 W/m 0,0 km/h (0 Bft) 95,74 %
06.05.2020 00:48 7,1 C 6,1 C 4,4 C 74 % 1023,6 hPa 0,0 l/m 0 min 0 min 0 W/m 0,0 km/h (0 Bft) 95,74 %
06.05.2020 00:50 7,1 C 6,1 C 4,4 C 74 % 1023,7 hPa 0,0 l/m 0 min 0 min 0 W/m 0,0 km/h (0 Bft) 95,74 %
06.05.2020 00:52 7,1 C 6,1 C 4,4 C 74 % 1023,6 hPa 0,0 l/m 0 min 0 min 0 W/m 0,0 km/h (0 Bft) 95,65 %
06.05.2020 00:54 7,1 C 6,1 C 4,4 C 74 % 1023,7 hPa 0,0 l/m 0 min 0 min 0 W/m 0,0 km/h (0 Bft) 93,62 %
06.05.2020 00:56 7,1 C 6,1 C 4,4 C 74 % 1023,7 hPa 0,0 l/m 0 min 0 min 0 W/m 0,0 km/h (0 Bft) 91,49 %
06.05.2020 00:58 7,1 C 5,6 C 4,4 C 74 % 1023,7 hPa 0,0 l/m 0 min 0 min 0 W/m 0,0 km/h (0 Bft) 97,87 %
06.05.2020 01:00 7,1 C 5,6 C 4,4 C 74 % 1023,7 hPa 0,0 l/m 0 min 0 min 0 W/m 0,0 km/h (0 Bft) 95,74 %
06.05.2020 01:02 7,1 C 5,6 C 4,4 C 74 % 1023,7 hPa 0,0 l/m 0 min 0 min 0 W/m 0,0 km/h (0 Bft) 97,87 %
06.05.2020 01:04 7,1 C 5,6 C 4,4 C 74 % 1023,7 hPa 0,0 l/m 0 min 0 min 0 W/m 0,0 km/h (0 Bft) 95,65 %
06.05.2020 01:06 7,1 C 5,6 C 4,4 C 74 % 1023,7 hPa 0,0 l/m 0 min 0 min 0 W/m 0,0 km/h (0 Bft) 95,74 %
06.05.2020 01:08 7,0 C 5,6 C 4,4 C 74 % 1023,6 hPa 0,0 l/m 0 min 0 min 0 W/m 0,0 km/h (0 Bft) 95,74 %
06.05.2020 01:10 7,0 C 5,6 C 4,4 C 74 % 1023,6 hPa 0,0 l/m 0 min 0 min 0 W/m 0,0 km/h (0 Bft) 93,62 %
06.05.2020 01:12 7,0 C 5,6 C 4,4 C 74 % 1023,6 hPa 0,0 l/m 0 min 0 min 0 W/m 0,0 km/h (0 Bft) 95,74 %
06.05.2020 01:14 6,9 C 5,6 C 4,4 C 74 % 1023,6 hPa 0,0 l/m 0 min 0 min 0 W/m 0,0 km/h (0 Bft) 95,74 %
06.05.2020 01:16 6,9 C 5,6 C 4,4 C 74 % 1023,6 hPa 0,0 l/m 0 min 0 min 0 W/m 3,2 km/h (1 Bft) 91,30 %
06.05.2020 01:18 6,9 C 6,1 C 4,4 C 75 % 1023,6 hPa 0,0 l/m 0 min 0 min 0 W/m 6,4 km/h (2 Bft) 95,74 %
06.05.2020 01:20 6,9 C 6,1 C 5,0 C 75 % 1023,7 hPa 0,0 l/m 0 min 0 min 0 W/m 9,7 km/h (2 Bft) 95,74 %
06.05.2020 01:22 6,9 C 6,7 C 5,0 C 75 % 1023,7 hPa 0,0 l/m 0 min 0 min 0 W/m 6,4 km/h (2 Bft) 95,74 %
06.05.2020 01:24 6,9 C 6,7 C 5,6 C 75 % 1023,7 hPa 0,0 l/m 0 min 0 min 0 W/m 3,2 km/h (1 Bft) 97,87 %
06.05.2020 01:26 6,9 C 6,7 C 5,6 C 75 % 1023,8 hPa 0,0 l/m 0 min 0 min 0 W/m 3,2 km/h (1 Bft) 97,83 %
06.05.2020 01:28 6,9 C 6,7 C 5,6 C 75 % 1023,8 hPa 0,0 l/m 0 min 0 min 0 W/m 6,4 km/h (2 Bft) 97,87 %
06.05.2020 01:30 6,9 C 6,7 C 5,6 C 75 % 1023,8 hPa 0,0 l/m 0 min 0 min 0 W/m 0,0 km/h (0 Bft) 95,74 %
06.05.2020 01:32 6,9 C 6,7 C 5,6 C 75 % 1023,8 hPa 0,0 l/m 0 min 0 min 0 W/m 6,4 km/h (2 Bft) 97,87 %
06.05.2020 01:34 6,9 C 6,7 C 6,1 C 75 % 1023,8 hPa 0,0 l/m 0 min 0 min 0 W/m 9,7 km/h (2 Bft) 95,74 %
06.05.2020 01:36 6,9 C 6,7 C 6,1 C 75 % 1023,8 hPa 0,0 l/m 0 min 0 min 0 W/m 3,2 km/h (1 Bft) 97,87 %
06.05.2020 01:38 6,9 C 6,1 C 5,6 C 75 % 1023,8 hPa 0,0 l/m 0 min 0 min 0 W/m 0,0 km/h (0 Bft) 95,65 %
06.05.2020 01:40 6,9 C 6,1 C 5,6 C 75 % 1023,8 hPa 0,0 l/m 0 min 0 min 0 W/m 0,0 km/h (0 Bft) 95,74 %
06.05.2020 01:42 7,0 C 6,1 C 5,6 C 75 % 1023,9 hPa 0,0 l/m 0 min 0 min 0 W/m 0,0 km/h (0 Bft) 97,87 %
06.05.2020 01:44 7,0 C 6,1 C 5,0 C 75 % 1023,9 hPa 0,0 l/m 0 min 0 min 0 W/m 0,0 km/h (0 Bft) 97,87 %
06.05.2020 01:46 7,0 C 6,1 C 5,0 C 75 % 1023,9 hPa 0,0 l/m 0 min 0 min 0 W/m 0,0 km/h (0 Bft) 97,87 %
06.05.2020 01:48 7,0 C 6,7 C 5,0 C 75 % 1023,9 hPa 0,0 l/m 0 min 0 min 0 W/m 0,0 km/h (0 Bft) 95,74 %
06.05.2020 01:50 7,0 C 6,1 C 5,0 C 75 % 1023,9 hPa 0,0 l/m 0 min 0 min 0 W/m 0,0 km/h (0 Bft) 95,65 %
06.05.2020 01:52 7,0 C 5,6 C 5,0 C 75 % 1023,9 hPa 0,0 l/m 0 min 0 min 0 W/m 0,0 km/h (0 Bft) 95,74 %
06.05.2020 01:54 7,0 C 5,6 C 5,0 C 75 % 1023,9 hPa 0,0 l/m 0 min 0 min 0 W/m 0,0 km/h (0 Bft) 97,87 %
06.05.2020 01:56 7,0 C 5,0 C 4,4 C 75 % 1023,9 hPa 0,0 l/m 0 min 0 min 0 W/m 0,0 km/h (0 Bft) 97,87 %
06.05.2020 01:58 7,0 C 5,0 C 4,4 C 75 % 1023,9 hPa 0,0 l/m 0 min 0 min 0 W/m 0,0 km/h (0 Bft) 97,87 %
06.05.2020 02:00 7,0 C 5,0 C 4,4 C 75 % 1024,0 hPa 0,0 l/m 0 min 0 min 0 W/m 0,0 km/h (0 Bft) 100,00 %
06.05.2020 02:02 7,0 C 5,0 C 4,4 C 75 % 1024,0 hPa 0,0 l/m 0 min 0 min 0 W/m 0,0 km/h (0 Bft) 100,00 %
06.05.2020 02:04 7,0 C 5,0 C 4,4 C 75 % 1024,0 hPa 0,0 l/m 0 min 0 min 0 W/m 0,0 km/h (0 Bft) 100,00 %
06.05.2020 02:06 6,9 C 5,0 C 3,9 C 74 % 1024,0 hPa 0,0 l/m 0 min 0 min 0 W/m 0,0 km/h (0 Bft) 100,00 %
06.05.2020 02:08 6,9 C 5,0 C 3,9 C 74 % 1024,0 hPa 0,0 l/m 0 min 0 min 0 W/m 0,0 km/h (0 Bft) 97,87 %
06.05.2020 02:10 6,9 C 4,4 C 3,9 C 75 % 1024,0 hPa 0,0 l/m 0 min 0 min 0 W/m 0,0 km/h (0 Bft) 100,00 %
06.05.2020 02:12 6,9 C 4,4 C 3,9 C 75 % 1024,0 hPa 0,0 l/m 0 min 0 min 0 W/m 0,0 km/h (0 Bft) 100,00 %
06.05.2020 02:14 6,9 C 4,4 C 3,9 C 75 % 1024,0 hPa 0,0 l/m 0 min 0 min 0 W/m 0,0 km/h (0 Bft) 97,87 %
06.05.2020 02:16 6,8 C 4,4 C 3,9 C 75 % 1024,0 hPa 0,0 l/m 0 min 0 min 0 W/m 0,0 km/h (0 Bft) 100,00 %
06.05.2020 02:18 6,8 C 4,4 C 3,9 C 75 % 1024,0 hPa 0,0 l/m 0 min 0 min 0 W/m 0,0 km/h (0 Bft) 97,87 %
06.05.2020 02:20 6,8 C 3,9 C 3,9 C 75 % 1023,9 hPa 0,0 l/m 0 min 0 min 0 W/m 0,0 km/h (0 Bft) 97,87 %
06.05.2020 02:22 6,7 C 3,9 C 3,9 C 75 % 1023,9 hPa 0,0 l/m 0 min 0 min 0 W/m 0,0 km/h (0 Bft) 97,87 %
06.05.2020 02:24 6,7 C 3,9 C 3,9 C 75 % 1023,9 hPa 0,0 l/m 0 min 0 min 0 W/m 0,0 km/h (0 Bft) 95,65 %
06.05.2020 02:26 6,6 C 3,9 C 3,3 C 75 % 1024,0 hPa 0,0 l/m 0 min 0 min 0 W/m 0,0 km/h (0 Bft) 97,87 %
06.05.2020 02:28 6,6 C 3,9 C 3,3 C 75 % 1024,0 hPa 0,0 l/m 0 min 0 min 0 W/m 0,0 km/h (0 Bft) 97,87 %
06.05.2020 02:30 6,6 C 3,9 C 3,3 C 75 % 1024,0 hPa 0,0 l/m 0 min 0 min 0 W/m 0,0 km/h (0 Bft) 97,87 %
06.05.2020 02:32 6,5 C 3,9 C 3,3 C 75 % 1024,0 hPa 0,0 l/m 0 min 0 min 0 W/m 0,0 km/h (0 Bft) 97,87 %
06.05.2020 02:34 6,5 C 3,9 C 3,3 C 76 % 1023,9 hPa 0,0 l/m 0 min 0 min 0 W/m 0,0 km/h (0 Bft) 97,87 %
06.05.2020 02:36 6,4 C 3,9 C 3,3 C 76 % 1024,0 hPa 0,0 l/m 0 min 0 min 0 W/m 0,0 km/h (0 Bft) 63,83 %
06.05.2020 02:38 6,4 C 3,9 C 3,3 C 76 % 1024,0 hPa 0,0 l/m 0 min 0 min 0 W/m 0,0 km/h (0 Bft) 89,74 %
06.05.2020 02:40 6,3 C 3,9 C 3,3 C 76 % 1024,0 hPa 0,0 l/m 0 min 0 min 0 W/m 0,0 km/h (0 Bft) 95,74 %
06.05.2020 02:42 6,3 C 3,9 C 3,3 C 76 % 1024,0 hPa 0,0 l/m 0 min 0 min 0 W/m 0,0 km/h (0 Bft) 97,87 %
06.05.2020 02:44 6,2 C 3,9 C 3,3 C 76 % 1024,0 hPa 0,0 l/m 0 min 0 min 0 W/m 0,0 km/h (0 Bft) 97,87 %
06.05.2020 02:46 6,2 C 3,3 C 3,3 C 76 % 1024,0 hPa 0,0 l/m 0 min 0 min 0 W/m 0,0 km/h (0 Bft) 97,87 %
06.05.2020 02:48 6,1 C 3,3 C 3,3 C 77 % 1024,0 hPa 0,0 l/m 0 min 0 min 0 W/m 0,0 km/h (0 Bft) 97,83 %
06.05.2020 02:50 6,1 C 3,3 C 3,3 C 77 % 1024,0 hPa 0,0 l/m 0 min 0 min 0 W/m 0,0 km/h (0 Bft) 97,87 %
06.05.2020 02:52 6,0 C 3,3 C 2,8 C 77 % 1024,0 hPa 0,0 l/m 0 min 0 min 0 W/m 0,0 km/h (0 Bft) 100,00 %
06.05.2020 02:54 6,0 C 3,3 C 3,3 C 77 % 1024,0 hPa 0,0 l/m 0 min 0 min 0 W/m 0,0 km/h (0 Bft) 100,00 %
06.05.2020 02:56 5,9 C 3,3 C 2,8 C 77 % 1024,0 hPa 0,0 l/m 0 min 0 min 0 W/m 0,0 km/h (0 Bft) 97,87 %
06.05.2020 02:58 5,9 C 3,9 C 2,8 C 77 % 1024,0 hPa 0,0 l/m 0 min 0 min 0 W/m 0,0 km/h (0 Bft) 100,00 %
06.05.2020 03:00 5,8 C 3,3 C 2,8 C 77 % 1024,0 hPa 0,0 l/m 0 min 0 min 0 W/m 0,0 km/h (0 Bft) 100,00 %
06.05.2020 03:02 5,8 C 3,3 C 2,8 C 77 % 1024,0 hPa 0,0 l/m 0 min 0 min 0 W/m 0,0 km/h (0 Bft) 97,87 %
06.05.2020 03:04 5,8 C 3,3 C 2,8 C 77 % 1024,0 hPa 0,0 l/m 0 min 0 min 0 W/m 0,0 km/h (0 Bft) 100,00 %
06.05.2020 03:06 5,7 C 3,3 C 2,8 C 77 % 1024,1 hPa 0,0 l/m 0 min 0 min 0 W/m 0,0 km/h (0 Bft) 100,00 %
06.05.2020 03:08 5,7 C 3,3 C 2,8 C 77 % 1024,1 hPa 0,0 l/m 0 min 0 min 0 W/m 0,0 km/h (0 Bft) 100,00 %
06.05.2020 03:10 5,6 C 3,3 C 2,8 C 78 % 1024,1 hPa 0,0 l/m 0 min 0 min 0 W/m 0,0 km/h (0 Bft) 100,00 %
06.05.2020 03:12 5,6 C 3,3 C 2,8 C 78 % 1024,1 hPa 0,0 l/m 0 min 0 min 0 W/m 0,0 km/h (0 Bft) 97,83 %
06.05.2020 03:14 5,6 C 3,3 C 2,8 C 78 % 1024,1 hPa 0,0 l/m 0 min 0 min 0 W/m 0,0 km/h (0 Bft) 100,00 %
06.05.2020 03:16 5,5 C 3,3 C 2,8 C 78 % 1024,1 hPa 0,0 l/m 0 min 0 min 0 W/m 0,0 km/h (0 Bft) 100,00 %
06.05.2020 03:18 5,5 C 3,3 C 2,8 C 77 % 1024,1 hPa 0,0 l/m 0 min 0 min 0 W/m 0,0 km/h (0 Bft) 100,00 %
06.05.2020 03:20 5,4 C 3,9 C 2,8 C 78 % 1024,1 hPa 0,0 l/m 0 min 0 min 0 W/m 0,0 km/h (0 Bft) 100,00 %
06.05.2020 03:22 5,4 C 3,9 C 2,8 C 78 % 1024,1 hPa 0,0 l/m 0 min 0 min 0 W/m 0,0 km/h (0 Bft) 100,00 %
06.05.2020 03:24 5,3 C 3,9 C 2,8 C 78 % 1024,1 hPa 0,0 l/m 0 min 0 min 0 W/m 0,0 km/h (0 Bft) 100,00 %
06.05.2020 03:26 5,3 C 3,9 C 2,8 C 78 % 1024,1 hPa 0,0 l/m 0 min 0 min 0 W/m 0,0 km/h (0 Bft) 100,00 %
06.05.2020 03:28 5,3 C 3,9 C 2,8 C 78 % 1024,2 hPa 0,0 l/m 0 min 0 min 0 W/m 0,0 km/h (0 Bft) 100,00 %
06.05.2020 03:30 5,2 C 3,3 C 2,8 C 78 % 1024,1 hPa 0,0 l/m 0 min 0 min 0 W/m 0,0 km/h (0 Bft) 100,00 %
06.05.2020 03:32 5,2 C 3,3 C 2,8 C 78 % 1024,2 hPa 0,0 l/m 0 min 0 min 0 W/m 0,0 km/h (0 Bft) 100,00 %
06.05.2020 03:34 5,2 C 3,3 C 2,8 C 79 % 1024,2 hPa 0,0 l/m 0 min 0 min 0 W/m 0,0 km/h (0 Bft) 51,22 %
06.05.2020 03:36 5,2 C 3,3 C 2,8 C 79 % 1024,2 hPa 0,0 l/m 0 min 0 min 0 W/m 0,0 km/h (0 Bft) 100,00 %
06.05.2020 03:38 5,1 C 3,9 C 2,8 C 79 % 1024,2 hPa 0,0 l/m 0 min 0 min 0 W/m 0,0 km/h (0 Bft) 100,00 %
06.05.2020 03:40 5,1 C 3,9 C 2,8 C 79 % 1024,2 hPa 0,0 l/m 0 min 0 min 0 W/m 0,0 km/h (0 Bft) 97,87 %
06.05.2020 03:42 5,1 C 3,3 C 2,8 C 79 % 1024,3 hPa 0,0 l/m 0 min 0 min 0 W/m 0,0 km/h (0 Bft) 97,87 %
06.05.2020 03:44 5,1 C 3,9 C 2,8 C 79 % 1024,3 hPa 0,0 l/m 0 min 0 min 0 W/m 0,0 km/h (0 Bft) 100,00 %
06.05.2020 03:46 5,0 C 3,9 C 2,8 C 79 % 1024,3 hPa 0,0 l/m 0 min 0 min 0 W/m 0,0 km/h (0 Bft) 100,00 %
06.05.2020 03:48 5,0 C 3,9 C 2,8 C 80 % 1024,2 hPa 0,0 l/m 0 min 0 min 0 W/m 0,0 km/h (0 Bft) 100,00 %
06.05.2020 03:50 4,9 C 3,9 C 2,8 C 80 % 1024,2 hPa 0,0 l/m 0 min 0 min 0 W/m 0,0 km/h (0 Bft) 100,00 %
06.05.2020 03:52 4,9 C 3,9 C 2,8 C 80 % 1024,3 hPa 0,0 l/m 0 min 0 min 0 W/m 0,0 km/h (0 Bft) 97,87 %
06.05.2020 03:54 4,9 C 3,9 C 2,8 C 80 % 1024,3 hPa 0,0 l/m 0 min 0 min 0 W/m 0,0 km/h (0 Bft) 100,00 %
06.05.2020 03:56 4,9 C 3,9 C 2,8 C 80 % 1024,3 hPa 0,0 l/m 0 min 0 min 0 W/m 0,0 km/h (0 Bft) 100,00 %
06.05.2020 03:58 4,9 C 3,9 C 2,8 C 81 % 1024,3 hPa 0,0 l/m 0 min 0 min 0 W/m 0,0 km/h (0 Bft) 97,83 %
06.05.2020 04:00 4,8 C 3,9 C 2,8 C 81 % 1024,2 hPa 0,0 l/m 0 min 0 min 0 W/m 0,0 km/h (0 Bft) 97,87 %
06.05.2020 04:02 4,8 C 3,9 C 2,8 C 81 % 1024,2 hPa 0,0 l/m 0 min 0 min 0 W/m 0,0 km/h (0 Bft) 100,00 %
06.05.2020 04:04 4,8 C 3,9 C 2,8 C 81 % 1024,2 hPa 0,0 l/m 0 min 0 min 0 W/m 0,0 km/h (0 Bft) 97,87 %
06.05.2020 04:06 4,8 C 3,9 C 2,8 C 81 % 1024,2 hPa 0,0 l/m 0 min 0 min 0 W/m 0,0 km/h (0 Bft) 97,87 %
06.05.2020 04:08 4,8 C 3,9 C 2,8 C 81 % 1024,2 hPa 0,0 l/m 0 min 0 min 0 W/m 0,0 km/h (0 Bft) 97,87 %
06.05.2020 04:10 4,8 C 3,9 C 2,8 C 81 % 1024,2 hPa 0,0 l/m 0 min 0 min 0 W/m 0,0 km/h (0 Bft) 97,83 %
06.05.2020 04:12 4,8 C 3,9 C 2,8 C 82 % 1024,2 hPa 0,0 l/m 0 min 0 min 0 W/m 0,0 km/h (0 Bft) 97,87 %
06.05.2020 04:14 4,8 C 3,9 C 2,8 C 81 % 1024,2 hPa 0,0 l/m 0 min 0 min 0 W/m 0,0 km/h (0 Bft) 97,87 %
06.05.2020 04:16 4,7 C 3,9 C 2,8 C 81 % 1024,2 hPa 0,0 l/m 0 min 0 min 0 W/m 0,0 km/h (0 Bft) 97,87 %
06.05.2020 04:18 4,7 C 3,9 C 2,8 C 82 % 1024,2 hPa 0,0 l/m 0 min 0 min 0 W/m 0,0 km/h (0 Bft) 97,87 %
06.05.2020 04:20 4,7 C 3,9 C 2,8 C 82 % 1024,2 hPa 0,0 l/m 0 min 0 min 0 W/m 0,0 km/h (0 Bft) 97,83 %
06.05.2020 04:22 4,7 C 3,3 C 2,8 C 82 % 1024,2 hPa 0,0 l/m 0 min 0 min 0 W/m 0,0 km/h (0 Bft) 97,87 %
06.05.2020 04:24 4,7 C 3,3 C 2,8 C 82 % 1024,2 hPa 0,0 l/m 0 min 0 min 0 W/m 0,0 km/h (0 Bft) 97,87 %
06.05.2020 04:26 4,7 C 3,3 C 2,8 C 82 % 1024,2 hPa 0,0 l/m 0 min 0 min 0 W/m 0,0 km/h (0 Bft) 97,87 %
06.05.2020 04:28 4,7 C 3,3 C 2,8 C 82 % 1024,2 hPa 0,0 l/m 0 min 0 min 0 W/m 0,0 km/h (0 Bft) 95,74 %
06.05.2020 04:30 4,7 C 3,3 C 2,8 C 82 % 1024,2 hPa 0,0 l/m 0 min 0 min 0 W/m 0,0 km/h (0 Bft) 97,87 %
06.05.2020 04:32 4,7 C 3,3 C 2,8 C 82 % 1024,2 hPa 0,0 l/m 0 min 0 min 0 W/m 0,0 km/h (0 Bft) 95,65 %
06.05.2020 04:34 4,7 C 3,3 C 2,8 C 82 % 1024,2 hPa 0,0 l/m 0 min 0 min 0 W/m 0,0 km/h (0 Bft) 97,87 %
06.05.2020 04:36 4,6 C 3,3 C 2,2 C 82 % 1024,2 hPa 0,0 l/m 0 min 0 min 0 W/m 0,0 km/h (0 Bft) 97,87 %
06.05.2020 04:38 4,6 C 3,3 C 2,8 C 82 % 1024,3 hPa 0,0 l/m 0 min 0 min 0 W/m 0,0 km/h (0 Bft) 97,87 %
06.05.2020 04:40 4,6 C 3,3 C 2,2 C 82 % 1024,2 hPa 0,0 l/m 0 min 0 min 0 W/m 0,0 km/h (0 Bft) 95,74 %
06.05.2020 04:42 4,6 C 3,3 C 2,2 C 82 % 1024,2 hPa 0,0 l/m 0 min 0 min 0 W/m 0,0 km/h (0 Bft) 97,87 %
06.05.2020 04:44 4,6 C 3,3 C 2,2 C 82 % 1024,3 hPa 0,0 l/m 0 min 0 min 0 W/m 0,0 km/h (0 Bft) 95,65 %
06.05.2020 04:46 4,6 C 3,3 C 2,2 C 82 % 1024,3 hPa 0,0 l/m 0 min 0 min 0 W/m 0,0 km/h (0 Bft) 97,87 %
06.05.2020 04:48 4,6 C 3,3 C 2,2 C 82 % 1024,3 hPa 0,0 l/m 0 min 0 min 0 W/m 0,0 km/h (0 Bft) 97,87 %
06.05.2020 04:51 4,6 C 3,3 C 2,2 C 82 % 1024,3 hPa 0,0 l/m 0 min 0 min 0 W/m 0,0 km/h (0 Bft) 97,14 %
06.05.2020 04:52 4,5 C 3,3 C 2,2 C 82 % 1024,3 hPa 0,0 l/m 0 min 0 min 0 W/m 0,0 km/h (0 Bft) 95,83 %
06.05.2020 04:54 4,5 C 3,3 C 2,2 C 82 % 1024,2 hPa 0,0 l/m 0 min 0 min 0 W/m 0,0 km/h (0 Bft) 97,87 %
06.05.2020 04:56 4,5 C 3,3 C 2,2 C 82 % 1024,4 hPa 0,0 l/m 0 min 0 min 0 W/m 0,0 km/h (0 Bft) 95,65 %
06.05.2020 04:58 4,5 C 3,3 C 2,2 C 83 % 1024,3 hPa 0,0 l/m 0 min 0 min 0 W/m 0,0 km/h (0 Bft) 95,74 %
06.05.2020 05:00 4,4 C 3,3 C 2,2 C 83 % 1024,3 hPa 0,0 l/m 0 min 0 min 0 W/m 0,0 km/h (0 Bft) 95,74 %
06.05.2020 05:02 4,4 C 3,3 C 2,2 C 83 % 1024,3 hPa 0,0 l/m 0 min 0 min 0 W/m 0,0 km/h (0 Bft) 93,62 %
06.05.2020 05:04 4,4 C 3,3 C 2,2 C 83 % 1024,3 hPa 0,0 l/m 0 min 0 min 0 W/m 0,0 km/h (0 Bft) 95,74 %
06.05.2020 05:06 4,4 C 2,8 C 2,2 C 83 % 1024,4 hPa 0,0 l/m 0 min 0 min 0 W/m 0,0 km/h (0 Bft) 95,65 %
06.05.2020 05:08 4,4 C 2,8 C 2,2 C 83 % 1024,4 hPa 0,0 l/m 0 min 0 min 0 W/m 0,0 km/h (0 Bft) 95,74 %
06.05.2020 05:10 4,4 C 2,8 C 2,2 C 83 % 1024,4 hPa 0,0 l/m 0 min 0 min 0 W/m 0,0 km/h (0 Bft) 95,74 %
06.05.2020 05:12 4,3 C 2,8 C 2,2 C 83 % 1024,4 hPa 0,0 l/m 0 min 0 min 0 W/m 0,0 km/h (0 Bft) 89,36 %
06.05.2020 05:14 4,3 C 2,8 C 2,2 C 83 % 1024,4 hPa 0,0 l/m 0 min 0 min 0 W/m 0,0 km/h (0 Bft) 95,74 %
06.05.2020 05:16 4,3 C 2,8 C 2,2 C 83 % 1024,4 hPa 0,0 l/m 0 min 0 min 0 W/m 0,0 km/h (0 Bft) 95,74 %
06.05.2020 05:18 4,3 C 2,8 C 2,2 C 83 % 1024,5 hPa 0,0 l/m 0 min 0 min 0 W/m 0,0 km/h (0 Bft) 91,30 %
06.05.2020 05:20 4,3 C 2,8 C 2,2 C 83 % 1024,4 hPa 0,0 l/m 0 min 0 min 0 W/m 0,0 km/h (0 Bft) 95,74 %
06.05.2020 05:22 4,3 C 2,8 C 2,2 C 83 % 1024,5 hPa 0,0 l/m 0 min 0 min 0 W/m 0,0 km/h (0 Bft) 85,11 %
06.05.2020 05:24 4,3 C 2,8 C 2,2 C 83 % 1024,4 hPa 0,0 l/m 0 min 0 min 0 W/m 0,0 km/h (0 Bft) 61,70 %
06.05.2020 05:26 4,2 C 2,8 C 2,2 C 83 % 1024,4 hPa 0,0 l/m 0 min 0 min 0 W/m 0,0 km/h (0 Bft) 93,62 %
06.05.2020 05:28 4,2 C 2,8 C 2,2 C 83 % 1024,5 hPa 0,0 l/m 0 min 0 min 0 W/m 0,0 km/h (0 Bft) 95,74 %
06.05.2020 05:30 4,2 C 2,8 C 2,2 C 83 % 1024,5 hPa 0,0 l/m 0 min 0 min 0 W/m 0,0 km/h (0 Bft) 97,83 %
06.05.2020 05:32 4,2 C 2,8 C 1,7 C 83 % 1024,6 hPa 0,0 l/m 0 min 0 min 0 W/m 0,0 km/h (0 Bft) 97,87 %
06.05.2020 05:34 4,2 C 2,8 C 1,7 C 83 % 1024,6 hPa 0,0 l/m 0 min 0 min 0 W/m 0,0 km/h (0 Bft) 93,62 %
06.05.2020 05:36 4,2 C 2,2 C 1,7 C 83 % 1024,6 hPa 0,0 l/m 0 min 0 min 0 W/m 0,0 km/h (0 Bft) 91,49 %
06.05.2020 05:38 4,1 C 2,8 C 1,7 C 83 % 1024,6 hPa 0,0 l/m 0 min 0 min 0 W/m 0,0 km/h (0 Bft) 95,74 %
06.05.2020 05:40 4,1 C 2,8 C 1,7 C 83 % 1024,6 hPa 0,0 l/m 0 min 0 min 0 W/m 0,0 km/h (0 Bft) 95,74 %
06.05.2020 05:42 4,1 C 2,8 C 1,7 C 83 % 1024,6 hPa 0,0 l/m 0 min 0 min 0 W/m 0,0 km/h (0 Bft) 95,65 %
06.05.2020 05:44 4,1 C 2,8 C 1,7 C 83 % 1024,6 hPa 0,0 l/m 0 min 0 min 0 W/m 0,0 km/h (0 Bft) 93,62 %
06.05.2020 05:46 4,1 C 2,8 C 1,7 C 83 % 1024,6 hPa 0,0 l/m 0 min 0 min 0 W/m 0,0 km/h (0 Bft) 95,74 %
06.05.2020 05:48 4,1 C 2,8 C 1,7 C 83 % 1024,6 hPa 0,0 l/m 0 min 0 min 0 W/m 0,0 km/h (0 Bft) 95,74 %
06.05.2020 05:50 4,1 C 2,8 C 1,7 C 83 % 1024,6 hPa 0,0 l/m 0 min 0 min 0 W/m 0,0 km/h (0 Bft) 95,74 %
06.05.2020 05:52 4,0 C 2,2 C 1,7 C 83 % 1024,6 hPa 0,0 l/m 0 min 0 min 0 W/m 0,0 km/h (0 Bft) 93,62 %
06.05.2020 05:54 4,0 C 2,2 C 1,7 C 83 % 1024,6 hPa 0,0 l/m 0 min 0 min 0 W/m 0,0 km/h (0 Bft) 95,65 %
06.05.2020 05:56 3,9 C 2,2 C 1,7 C 83 % 1024,6 hPa 0,0 l/m 0 min 0 min 0 W/m 0,0 km/h (0 Bft) 95,74 %
06.05.2020 05:58 3,9 C 2,2 C 1,7 C 83 % 1024,6 hPa 0,0 l/m 0 min 0 min 0 W/m 0,0 km/h (0 Bft) 95,74 %
06.05.2020 06:00 3,9 C 2,2 C 1,7 C 83 % 1024,6 hPa 0,0 l/m 0 min 0 min 0 W/m 0,0 km/h (0 Bft) 93,62 %
06.05.2020 06:02 3,9 C 2,2 C 1,7 C 84 % 1024,6 hPa 0,0 l/m 0 min 0 min 3 W/m 0,0 km/h (0 Bft) 95,74 %
06.05.2020 06:04 3,9 C 2,2 C 1,7 C 84 % 1024,6 hPa 0,0 l/m 0 min 0 min 5 W/m 0,0 km/h (0 Bft) 97,87 %
06.05.2020 06:06 3,9 C 2,2 C 1,7 C 84 % 1024,7 hPa 0,0 l/m 0 min 0 min 5 W/m 0,0 km/h (0 Bft) 97,83 %
06.05.2020 06:08 3,9 C 2,2 C 1,7 C 84 % 1024,7 hPa 0,0 l/m 0 min 0 min 6 W/m 0,0 km/h (0 Bft) 97,87 %
06.05.2020 06:10 3,8 C 2,8 C 1,7 C 84 % 1024,7 hPa 0,0 l/m 0 min 0 min 7 W/m 0,0 km/h (0 Bft) 95,74 %
06.05.2020 06:12 3,8 C 2,8 C 1,7 C 84 % 1024,7 hPa 0,0 l/m 0 min 0 min 7 W/m 0,0 km/h (0 Bft) 95,74 %
06.05.2020 06:14 3,8 C 2,8 C 1,7 C 84 % 1024,7 hPa 0,0 l/m 0 min 0 min 7 W/m 0,0 km/h (0 Bft) 97,87 %
06.05.2020 06:16 3,8 C 2,8 C 1,7 C 84 % 1024,7 hPa 0,0 l/m 0 min 0 min 9 W/m 0,0 km/h (0 Bft) 97,83 %
06.05.2020 06:18 3,8 C 2,8 C 1,7 C 84 % 1024,8 hPa 0,0 l/m 0 min 0 min 9 W/m 0,0 km/h (0 Bft) 97,87 %
06.05.2020 06:20 3,8 C 2,8 C 1,7 C 84 % 1024,8 hPa 0,0 l/m 0 min 0 min 9 W/m 0,0 km/h (0 Bft) 95,74 %
06.05.2020 06:22 3,8 C 2,8 C 1,7 C 85 % 1024,7 hPa 0,0 l/m 0 min 0 min 11 W/m 0,0 km/h (0 Bft) 97,87 %
06.05.2020 06:24 3,8 C 2,8 C 2,2 C 85 % 1024,7 hPa 0,0 l/m 0 min 0 min 11 W/m 0,0 km/h (0 Bft) 97,87 %
06.05.2020 06:26 3,7 C 3,3 C 2,2 C 85 % 1024,7 hPa 0,0 l/m 0 min 0 min 11 W/m 3,2 km/h (1 Bft) 100,00 %
06.05.2020 06:28 3,7 C 3,3 C 2,2 C 85 % 1024,8 hPa 0,0 l/m 0 min 0 min 12 W/m 0,0 km/h (0 Bft) 100,00 %
06.05.2020 06:30 3,7 C 3,3 C 2,2 C 85 % 1024,8 hPa 0,0 l/m 0 min 0 min 12 W/m 0,0 km/h (0 Bft) 97,87 %
06.05.2020 06:32 3,7 C 3,3 C 2,2 C 85 % 1024,8 hPa 0,0 l/m 0 min 0 min 12 W/m 0,0 km/h (0 Bft) 100,00 %
06.05.2020 06:34 3,7 C 3,3 C 2,2 C 86 % 1024,8 hPa 0,0 l/m 0 min 0 min 14 W/m 0,0 km/h (0 Bft) 97,87 %
06.05.2020 06:36 3,7 C 3,3 C 2,2 C 86 % 1024,9 hPa 0,0 l/m 0 min 0 min 14 W/m 0,0 km/h (0 Bft) 100,00 %
06.05.2020 06:38 3,7 C 3,3 C 2,2 C 86 % 1024,9 hPa 0,0 l/m 0 min 0 min 14 W/m 0,0 km/h (0 Bft) 100,00 %
06.05.2020 06:40 3,8 C 3,3 C 2,2 C 86 % 1024,9 hPa 0,0 l/m 0 min 0 min 15 W/m 0,0 km/h (0 Bft) 97,83 %
06.05.2020 06:42 3,8 C 3,3 C 2,2 C 86 % 1024,9 hPa 0,0 l/m 0 min 0 min 16 W/m 0,0 km/h (0 Bft) 100,00 %
06.05.2020 06:44 3,8 C 3,3 C 2,2 C 86 % 1024,9 hPa 0,0 l/m 0 min 0 min 16 W/m 0,0 km/h (0 Bft) 100,00 %
06.05.2020 06:46 3,8 C 3,3 C 2,2 C 87 % 1024,9 hPa 0,0 l/m 0 min 0 min 16 W/m 0,0 km/h (0 Bft) 100,00 %
06.05.2020 06:48 3,8 C 3,3 C 2,2 C 87 % 1025,0 hPa 0,0 l/m 0 min 0 min 18 W/m 0,0 km/h (0 Bft) 100,00 %
06.05.2020 06:50 3,8 C 3,3 C 2,2 C 87 % 1025,0 hPa 0,0 l/m 0 min 0 min 18 W/m 0,0 km/h (0 Bft) 97,87 %
06.05.2020 06:52 3,8 C 3,3 C 2,2 C 87 % 1025,0 hPa 0,0 l/m 0 min 0 min 18 W/m 0,0 km/h (0 Bft) 100,00 %
06.05.2020 06:54 3,8 C 3,3 C 2,2 C 87 % 1025,0 hPa 0,0 l/m 0 min 0 min 19 W/m 0,0 km/h (0 Bft) 100,00 %
06.05.2020 06:56 3,8 C 3,3 C 2,2 C 87 % 1025,0 hPa 0,0 l/m 0 min 0 min 19 W/m 0,0 km/h (0 Bft) 100,00 %
06.05.2020 06:58 3,8 C 3,9 C 2,2 C 87 % 1025,0 hPa 0,0 l/m 0 min 0 min 19 W/m 0,0 km/h (0 Bft) 100,00 %
06.05.2020 07:00 3,8 C 3,9 C 2,2 C 87 % 1025,0 hPa 0,0 l/m 0 min 0 min 20 W/m 0,0 km/h (0 Bft) 100,00 %
06.05.2020 07:02 3,8 C 3,9 C 2,8 C 87 % 1025,0 hPa 0,0 l/m 0 min 0 min 21 W/m 0,0 km/h (0 Bft) 95,65 %
06.05.2020 07:04 3,8 C 3,9 C 2,8 C 87 % 1025,1 hPa 0,0 l/m 0 min 0 min 21 W/m 0,0 km/h (0 Bft) 97,87 %
06.05.2020 07:06 3,8 C 3,9 C 2,8 C 87 % 1025,1 hPa 0,0 l/m 0 min 0 min 21 W/m 0,0 km/h (0 Bft) 65,96 %
06.05.2020 07:08 3,9 C 3,9 C 2,8 C 87 % 1025,1 hPa 0,0 l/m 0 min 0 min 22 W/m 0,0 km/h (0 Bft) 84,62 %
06.05.2020 07:10 3,9 C 3,9 C 2,8 C 87 % 1025,1 hPa 0,0 l/m 0 min 0 min 23 W/m 0,0 km/h (0 Bft) 97,87 %
06.05.2020 07:12 3,9 C 4,4 C 2,8 C 88 % 1025,1 hPa 0,0 l/m 0 min 0 min 24 W/m 0,0 km/h (0 Bft) 95,74 %
06.05.2020 07:14 3,9 C 4,4 C 2,8 C 88 % 1025,1 hPa 0,0 l/m 0 min 0 min 25 W/m 0,0 km/h (0 Bft) 97,83 %
06.05.2020 07:16 3,9 C 4,4 C 2,8 C 88 % 1025,2 hPa 0,0 l/m 0 min 0 min 25 W/m 0,0 km/h (0 Bft) 97,87 %
06.05.2020 07:18 4,0 C 4,4 C 2,8 C 88 % 1025,2 hPa 0,0 l/m 0 min 0 min 26 W/m 0,0 km/h (0 Bft) 95,74 %
06.05.2020 07:20 4,0 C 4,4 C 3,3 C 88 % 1025,2 hPa 0,0 l/m 0 min 0 min 26 W/m 0,0 km/h (0 Bft) 95,74 %
06.05.2020 07:22 4,1 C 4,4 C 3,3 C 88 % 1025,2 hPa 0,0 l/m 0 min 0 min 27 W/m 0,0 km/h (0 Bft) 95,74 %
06.05.2020 07:24 4,1 C 4,4 C 3,3 C 88 % 1025,2 hPa 0,0 l/m 0 min 0 min 28 W/m 0,0 km/h (0 Bft) 97,87 %
06.05.2020 07:26 4,1 C 4,4 C 3,3 C 88 % 1025,2 hPa 0,0 l/m 0 min 0 min 28 W/m 0,0 km/h (0 Bft) 97,83 %
06.05.2020 07:28 4,1 C 4,4 C 3,3 C 88 % 1025,2 hPa 0,0 l/m 0 min 0 min 29 W/m 0,0 km/h (0 Bft) 95,74 %
06.05.2020 07:30 4,2 C 4,4 C 3,3 C 88 % 1025,2 hPa 0,0 l/m 0 min 0 min 30 W/m 0,0 km/h (0 Bft) 97,87 %
06.05.2020 07:32 4,2 C 4,4 C 3,3 C 89 % 1025,2 hPa 0,0 l/m 0 min 0 min 30 W/m 0,0 km/h (0 Bft) 95,74 %
06.05.2020 07:34 4,2 C 5,0 C 3,3 C 89 % 1025,2 hPa 0,0 l/m 0 min 0 min 30 W/m 0,0 km/h (0 Bft) 97,87 %
06.05.2020 07:36 4,2 C 5,0 C 3,3 C 89 % 1025,3 hPa 0,0 l/m 0 min 0 min 32 W/m 0,0 km/h (0 Bft) 97,87 %
06.05.2020 07:38 4,3 C 5,0 C 3,3 C 89 % 1025,3 hPa 0,0 l/m 0 min 0 min 32 W/m 0,0 km/h (0 Bft) 97,83 %
06.05.2020 07:40 4,3 C 5,0 C 3,3 C 89 % 1025,3 hPa 0,0 l/m 0 min 0 min 32 W/m 0,0 km/h (0 Bft) 95,74 %
06.05.2020 07:42 4,3 C 5,0 C 3,3 C 89 % 1025,3 hPa 0,0 l/m 0 min 0 min 33 W/m 0,0 km/h (0 Bft) 95,74 %
06.05.2020 07:44 4,4 C 5,0 C 3,3 C 89 % 1025,3 hPa 0,0 l/m 0 min 0 min 33 W/m 0,0 km/h (0 Bft) 95,74 %
06.05.2020 07:46 4,4 C 5,6 C 3,9 C 89 % 1025,3 hPa 0,0 l/m 0 min 0 min 33 W/m 3,2 km/h (1 Bft) 97,87 %
06.05.2020 07:48 4,4 C 5,6 C 3,9 C 89 % 1025,3 hPa 0,0 l/m 0 min 0 min 34 W/m 0,0 km/h (0 Bft) 97,83 %
06.05.2020 07:50 4,6 C 5,6 C 3,9 C 89 % 1025,4 hPa 0,0 l/m 0 min 0 min 35 W/m 0,0 km/h (0 Bft) 97,87 %
06.05.2020 07:52 4,6 C 5,6 C 4,4 C 89 % 1025,3 hPa 0,0 l/m 0 min 0 min 35 W/m 0,0 km/h (0 Bft) 97,87 %
06.05.2020 07:54 4,6 C 6,1 C 4,4 C 89 % 1025,4 hPa 0,0 l/m 0 min 0 min 36 W/m 0,0 km/h (0 Bft) 97,87 %
06.05.2020 07:56 4,7 C 6,1 C 4,4 C 89 % 1025,4 hPa 0,0 l/m 0 min 0 min 37 W/m 0,0 km/h (0 Bft) 95,74 %
06.05.2020 07:58 4,7 C 6,1 C 4,4 C 89 % 1025,4 hPa 0,0 l/m 0 min 0 min 37 W/m 3,2 km/h (1 Bft) 97,87 %
06.05.2020 08:00 4,8 C 6,1 C 5,0 C 89 % 1025,4 hPa 0,0 l/m 0 min 0 min 39 W/m 0,0 km/h (0 Bft) 100,00 %
06.05.2020 08:02 4,9 C 6,1 C 5,0 C 89 % 1025,4 hPa 0,0 l/m 0 min 0 min 39 W/m 0,0 km/h (0 Bft) 97,83 %
06.05.2020 08:04 4,9 C 6,1 C 5,0 C 89 % 1025,4 hPa 0,0 l/m 0 min 0 min 39 W/m 0,0 km/h (0 Bft) 97,87 %
06.05.2020 08:06 5,0 C 6,7 C 5,0 C 89 % 1025,4 hPa 0,0 l/m 0 min 0 min 39 W/m 0,0 km/h (0 Bft) 97,87 %
06.05.2020 08:08 5,1 C 6,7 C 5,0 C 89 % 1025,4 hPa 0,0 l/m 0 min 0 min 40 W/m 0,0 km/h (0 Bft) 97,87 %
06.05.2020 08:10 5,1 C 6,7 C 5,0 C 89 % 1025,4 hPa 0,0 l/m 0 min 0 min 40 W/m 9,7 km/h (2 Bft) 97,87 %
06.05.2020 08:12 5,2 C 6,7 C 5,6 C 89 % 1025,4 hPa 0,0 l/m 0 min 0 min 40 W/m 6,4 km/h (2 Bft) 93,48 %
06.05.2020 08:14 5,3 C 6,7 C 5,6 C 89 % 1025,5 hPa 0,0 l/m 0 min 0 min 42 W/m 6,4 km/h (2 Bft) 97,87 %
06.05.2020 08:16 5,4 C 7,2 C 5,6 C 89 % 1025,5 hPa 0,0 l/m 0 min 0 min 42 W/m 3,2 km/h (1 Bft) 97,87 %
06.05.2020 08:18 5,4 C 7,2 C 5,6 C 88 % 1025,5 hPa 0,0 l/m 0 min 0 min 43 W/m 6,4 km/h (2 Bft) 97,87 %
06.05.2020 08:20 5,6 C 7,2 C 5,6 C 88 % 1025,6 hPa 0,0 l/m 0 min 0 min 45 W/m 9,7 km/h (2 Bft) 97,87 %
06.05.2020 08:22 5,7 C 7,8 C 6,1 C 88 % 1025,6 hPa 0,0 l/m 0 min 0 min 51 W/m 3,2 km/h (1 Bft) 97,87 %
06.05.2020 08:24 5,8 C 10,0 C 6,1 C 87 % 1025,6 hPa 0,0 l/m 0 min 0 min 69 W/m 3,2 km/h (1 Bft) 100,00 %
06.05.2020 08:26 5,8 C 12,2 C 6,1 C 87 % 1025,6 hPa 0,0 l/m 0 min 0 min 89 W/m 0,0 km/h (0 Bft) 100,00 %
06.05.2020 08:28 5,9 C 12,8 C 6,1 C 87 % 1025,6 hPa 0,0 l/m 0 min 0 min 117 W/m 3,2 km/h (1 Bft) 100,00 %
06.05.2020 08:30 6,1 C 13,9 C 6,1 C 87 % 1025,6 hPa 0,0 l/m 0 min 0 min 143 W/m 6,4 km/h (2 Bft) 100,00 %
06.05.2020 08:32 6,3 C 13,9 C 6,7 C 87 % 1025,6 hPa 0,0 l/m 0 min 0 min 174 W/m 6,4 km/h (2 Bft) 100,00 %
06.05.2020 08:34 6,5 C 13,9 C 6,7 C 87 % 1025,6 hPa 0,0 l/m 2 min 0 min 201 W/m 0,0 km/h (0 Bft) 97,87 %
06.05.2020 08:36 6,7 C 13,9 C 6,7 C 86 % 1025,7 hPa 0,0 l/m 2 min 0 min 230 W/m 6,4 km/h (2 Bft) 100,00 %
06.05.2020 08:38 6,9 C 14,4 C 6,7 C 86 % 1025,7 hPa 0,0 l/m 2 min 0 min 256 W/m 6,4 km/h (2 Bft) 100,00 %
06.05.2020 08:40 7,1 C 14,4 C 7,2 C 85 % 1025,7 hPa 0,0 l/m 2 min 0 min 290 W/m 6,4 km/h (2 Bft) 97,87 %
06.05.2020 08:42 7,3 C 15,0 C 7,2 C 85 % 1025,7 hPa 0,0 l/m 2 min 0 min 322 W/m 0,0 km/h (0 Bft) 97,87 %
06.05.2020 08:44 7,6 C 15,6 C 7,2 C 84 % 1025,7 hPa 0,0 l/m 2 min 0 min 351 W/m 0,0 km/h (0 Bft) 97,87 %
06.05.2020 08:46 7,8 C 16,7 C 7,2 C 84 % 1025,7 hPa 0,0 l/m 2 min 0 min 376 W/m 0,0 km/h (0 Bft) 97,83 %
06.05.2020 08:48 8,1 C 16,7 C 7,8 C 84 % 1025,7 hPa 0,0 l/m 2 min 0 min 395 W/m 3,2 km/h (1 Bft) 97,87 %
06.05.2020 08:50 8,3 C 16,1 C 8,3 C 83 % 1025,8 hPa 0,0 l/m 2 min 0 min 409 W/m 9,7 km/h (2 Bft) 97,87 %
06.05.2020 08:52 8,6 C 15,6 C 8,9 C 82 % 1025,8 hPa 0,0 l/m 2 min 0 min 419 W/m 9,7 km/h (2 Bft) 95,74 %
06.05.2020 08:54 8,8 C 16,1 C 8,9 C 81 % 1025,8 hPa 0,0 l/m 2 min 0 min 425 W/m 0,0 km/h (0 Bft) 97,87 %
06.05.2020 08:56 9,2 C 16,7 C 8,9 C 81 % 1025,9 hPa 0,0 l/m 2 min 0 min 432 W/m 0,0 km/h (0 Bft) 97,87 %
06.05.2020 08:58 9,4 C 17,2 C 9,4 C 80 % 1025,9 hPa 0,0 l/m 2 min 0 min 438 W/m 0,0 km/h (0 Bft) 97,83 %
06.05.2020 09:00 9,7 C 17,2 C 11,1 C 79 % 1025,9 hPa 0,0 l/m 2 min 0 min 444 W/m 0,0 km/h (0 Bft) 97,87 %
06.05.2020 09:02 10,0 C 17,2 C 14,4 C 79 % 1025,9 hPa 0,0 l/m 2 min 0 min 451 W/m 9,7 km/h (2 Bft) 97,87 %
06.05.2020 09:04 10,3 C 16,7 C 16,7 C 77 % 1025,9 hPa 0,0 l/m 2 min 0 min 458 W/m 6,4 km/h (2 Bft) 95,74 %
06.05.2020 09:06 10,5 C 16,7 C 17,8 C 75 % 1025,9 hPa 0,0 l/m 2 min 0 min 464 W/m 6,4 km/h (2 Bft) 97,87 %
06.05.2020 09:08 10,7 C 17,2 C 19,4 C 74 % 1025,9 hPa 0,0 l/m 2 min 0 min 469 W/m 3,2 km/h (1 Bft) 97,87 %
06.05.2020 09:10 10,9 C 17,2 C 20,0 C 74 % 1026,0 hPa 0,0 l/m 2 min 0 min 475 W/m 6,4 km/h (2 Bft) 97,83 %
06.05.2020 09:12 11,2 C 17,2 C 20,6 C 73 % 1026,0 hPa 0,0 l/m 2 min 0 min 480 W/m 0,0 km/h (0 Bft) 93,62 %
06.05.2020 09:14 11,4 C 17,8 C 21,1 C 74 % 1025,9 hPa 0,0 l/m 2 min 0 min 486 W/m 0,0 km/h (0 Bft) 97,87 %
06.05.2020 09:15 11,5 C 17,8 C 21,7 C 73 % 1025,9 hPa 0,0 l/m 1 min 0 min 486 W/m 0,0 km/h (0 Bft) 98,25 %
06.05.2020 09:18 11,8 C 18,3 C 22,2 C 70 % 1025,9 hPa 0,0 l/m 3 min 0 min 501 W/m 3,2 km/h (1 Bft) 100,00 %
06.05.2020 09:20 11,9 C 17,2 C 21,7 C 68 % 1025,9 hPa 0,0 l/m 2 min 0 min 506 W/m 6,4 km/h (2 Bft) 100,00 %
06.05.2020 09:22 12,1 C 16,7 C 21,1 C 66 % 1026,0 hPa 0,0 l/m 2 min 0 min 512 W/m 16,1 km/h (3 Bft) 100,00 %
06.05.2020 09:24 12,3 C 16,7 C 21,1 C 63 % 1026,0 hPa 0,0 l/m 2 min 0 min 518 W/m 19,3 km/h (3 Bft) 100,00 %
06.05.2020 09:26 12,4 C 17,2 C 21,7 C 62 % 1026,0 hPa 0,0 l/m 2 min 0 min 525 W/m 12,9 km/h (3 Bft) 97,87 %
06.05.2020 09:28 12,6 C 16,7 C 21,7 C 61 % 1026,0 hPa 0,0 l/m 2 min 0 min 531 W/m 12,9 km/h (3 Bft) 100,00 %
06.05.2020 09:30 12,7 C 17,2 C 22,2 C 60 % 1026,0 hPa 0,0 l/m 2 min 0 min 536 W/m 12,9 km/h (3 Bft) 100,00 %
06.05.2020 09:32 12,8 C 17,8 C 22,8 C 60 % 1026,0 hPa 0,0 l/m 2 min 0 min 544 W/m 12,9 km/h (3 Bft) 100,00 %
06.05.2020 09:34 13,0 C 16,7 C 22,2 C 59 % 1026,0 hPa 0,0 l/m 2 min 0 min 549 W/m 16,1 km/h (3 Bft) 100,00 %
06.05.2020 09:36 13,1 C 17,2 C 22,8 C 58 % 1026,0 hPa 0,0 l/m 2 min 0 min 555 W/m 6,4 km/h (2 Bft) 100,00 %
06.05.2020 09:38 13,2 C 18,3 C 22,8 C 59 % 1026,0 hPa 0,0 l/m 2 min 0 min 561 W/m 6,4 km/h (2 Bft) 100,00 %
06.05.2020 09:40 13,4 C 17,2 C 22,2 C 57 % 1026,0 hPa 0,0 l/m 2 min 0 min 567 W/m 16,1 km/h (3 Bft) 100,00 %
06.05.2020 09:42 13,5 C 17,8 C 22,8 C 57 % 1026,0 hPa 0,0 l/m 2 min 0 min 572 W/m 16,1 km/h (3 Bft) 95,74 %
06.05.2020 09:44 13,6 C 17,2 C 21,7 C 56 % 1026,0 hPa 0,0 l/m 2 min 0 min 578 W/m 16,1 km/h (3 Bft) 97,83 %
06.05.2020 09:46 13,7 C 17,8 C 22,2 C 56 % 1026,0 hPa 0,0 l/m 2 min 0 min 584 W/m 16,1 km/h (3 Bft) 97,87 %
06.05.2020 09:48 13,8 C 17,2 C 21,7 C 54 % 1026,0 hPa 0,0 l/m 2 min 0 min 588 W/m 16,1 km/h (3 Bft) 97,87 %
06.05.2020 09:50 13,9 C 17,8 C 22,2 C 55 % 1026,0 hPa 0,0 l/m 2 min 0 min 596 W/m 6,4 km/h (2 Bft) 97,87 %
06.05.2020 09:52 14,0 C 18,3 C 22,8 C 55 % 1026,0 hPa 0,0 l/m 2 min 0 min 601 W/m 19,3 km/h (3 Bft) 97,87 %
06.05.2020 09:54 14,1 C 18,3 C 22,8 C 55 % 1026,0 hPa 0,0 l/m 2 min 0 min 607 W/m 12,9 km/h (3 Bft) 97,87 %
06.05.2020 09:56 14,1 C 17,8 C 22,8 C 54 % 1026,0 hPa 0,0 l/m 2 min 0 min 612 W/m 16,1 km/h (3 Bft) 93,48 %
06.05.2020 09:58 14,2 C 18,3 C 22,8 C 53 % 1025,9 hPa 0,0 l/m 2 min 0 min 618 W/m 12,9 km/h (3 Bft) 97,87 %
06.05.2020 10:00 14,3 C 18,3 C 23,3 C 54 % 1026,0 hPa 0,0 l/m 2 min 0 min 623 W/m 16,1 km/h (3 Bft) 97,87 %
06.05.2020 10:02 14,3 C 18,9 C 24,4 C 54 % 1025,9 hPa 0,0 l/m 2 min 0 min 629 W/m 12,9 km/h (3 Bft) 97,87 %
06.05.2020 10:04 14,3 C 18,9 C 24,4 C 53 % 1025,9 hPa 0,0 l/m 2 min 0 min 633 W/m 16,1 km/h (3 Bft) 95,74 %
06.05.2020 10:06 14,4 C 18,9 C 23,9 C 53 % 1025,9 hPa 0,0 l/m 2 min 0 min 640 W/m 12,9 km/h (3 Bft) 97,87 %
06.05.2020 10:08 14,6 C 19,4 C 23,9 C 53 % 1025,9 hPa 0,0 l/m 2 min 0 min 645 W/m 12,9 km/h (3 Bft) 95,65 %
06.05.2020 10:10 14,6 C 19,4 C 25,0 C 52 % 1025,9 hPa 0,0 l/m 2 min 0 min 650 W/m 19,3 km/h (3 Bft) 95,74 %
06.05.2020 10:12 14,7 C 19,4 C 23,3 C 53 % 1025,9 hPa 0,0 l/m 2 min 0 min 653 W/m 6,4 km/h (2 Bft) 97,87 %
06.05.2020 10:14 14,8 C 19,4 C 23,3 C 54 % 1025,9 hPa 0,0 l/m 2 min 0 min 658 W/m 12,9 km/h (3 Bft) 95,74 %
06.05.2020 10:16 14,9 C 19,4 C 23,3 C 53 % 1025,9 hPa 0,0 l/m 2 min 0 min 664 W/m 12,9 km/h (3 Bft) 97,87 %
06.05.2020 10:18 14,9 C 20,0 C 24,4 C 54 % 1025,9 hPa 0,0 l/m 2 min 0 min 668 W/m 9,7 km/h (2 Bft) 100,00 %
06.05.2020 10:20 15,1 C 20,0 C 23,9 C 53 % 1025,9 hPa 0,0 l/m 2 min 0 min 674 W/m 12,9 km/h (3 Bft) 100,00 %
06.05.2020 10:22 15,2 C 20,6 C 25,0 C 53 % 1025,9 hPa 0,0 l/m 2 min 0 min 679 W/m 16,1 km/h (3 Bft) 100,00 %
06.05.2020 10:24 15,2 C 20,0 C 25,0 C 52 % 1025,9 hPa 0,0 l/m 2 min 0 min 684 W/m 12,9 km/h (3 Bft) 100,00 %
06.05.2020 10:26 15,3 C 20,0 C 25,6 C 51 % 1025,9 hPa 0,0 l/m 2 min 0 min 685 W/m 12,9 km/h (3 Bft) 97,87 %
06.05.2020 10:28 15,4 C 19,4 C 24,4 C 50 % 1025,9 hPa 0,0 l/m 2 min 0 min 693 W/m 16,1 km/h (3 Bft) 100,00 %
06.05.2020 10:30 15,4 C 19,4 C 25,0 C 51 % 1025,9 hPa 0,0 l/m 2 min 0 min 697 W/m 9,7 km/h (2 Bft) 97,83 %
06.05.2020 10:32 15,5 C 19,4 C 23,9 C 50 % 1025,8 hPa 0,0 l/m 2 min 0 min 704 W/m 12,9 km/h (3 Bft) 100,00 %
06.05.2020 10:34 15,5 C 19,4 C 23,9 C 50 % 1025,8 hPa 0,0 l/m 2 min 0 min 709 W/m 12,9 km/h (3 Bft) 100,00 %
06.05.2020 10:36 15,6 C 19,4 C 25,0 C 51 % 1025,8 hPa 0,0 l/m 2 min 0 min 713 W/m 19,3 km/h (3 Bft) 100,00 %
06.05.2020 10:38 15,6 C 19,4 C 25,0 C 51 % 1025,8 hPa 0,0 l/m 2 min 0 min 717 W/m 12,9 km/h (3 Bft) 100,00 %
06.05.2020 10:40 15,7 C 20,0 C 25,0 C 51 % 1025,8 hPa 0,0 l/m 2 min 0 min 723 W/m 22,5 km/h (4 Bft) 100,00 %
06.05.2020 10:42 15,7 C 20,0 C 25,0 C 50 % 1025,8 hPa 0,0 l/m 2 min 0 min 730 W/m 19,3 km/h (3 Bft) 100,00 %
06.05.2020 10:44 15,8 C 20,6 C 25,0 C 49 % 1025,8 hPa 0,0 l/m 2 min 0 min 735 W/m 12,9 km/h (3 Bft) 100,00 %
06.05.2020 10:46 15,8 C 20,0 C 23,3 C 48 % 1025,8 hPa 0,0 l/m 2 min 0 min 735 W/m 16,1 km/h (3 Bft) 100,00 %
06.05.2020 10:48 15,8 C 19,4 C 23,9 C 48 % 1025,8 hPa 0,0 l/m 2 min 0 min 739 W/m 19,3 km/h (3 Bft) 100,00 %
06.05.2020 10:50 15,9 C 20,0 C 24,4 C 48 % 1025,8 hPa 0,0 l/m 2 min 0 min 744 W/m 12,9 km/h (3 Bft) 100,00 %
06.05.2020 10:52 15,9 C 20,6 C 24,4 C 48 % 1025,8 hPa 0,0 l/m 2 min 0 min 748 W/m 16,1 km/h (3 Bft) 100,00 %
06.05.2020 10:54 15,9 C 20,6 C 25,0 C 48 % 1025,8 hPa 0,0 l/m 2 min 0 min 754 W/m 12,9 km/h (3 Bft) 100,00 %
06.05.2020 10:56 15,9 C 21,7 C 26,1 C 49 % 1025,8 hPa 0,0 l/m 2 min 0 min 758 W/m 9,7 km/h (2 Bft) 100,00 %
06.05.2020 10:58 16,0 C 21,1 C 24,4 C 48 % 1025,8 hPa 0,0 l/m 2 min 0 min 766 W/m 6,4 km/h (2 Bft) 100,00 %
06.05.2020 11:00 16,1 C 21,1 C 24,4 C 49 % 1025,8 hPa 0,0 l/m 2 min 0 min 772 W/m 16,1 km/h (3 Bft) 100,00 %
06.05.2020 11:02 16,1 C 20,0 C 24,4 C 48 % 1025,9 hPa 0,0 l/m 2 min 0 min 778 W/m 19,3 km/h (3 Bft) 97,87 %
06.05.2020 11:04 16,1 C 19,4 C 21,7 C 46 % 1025,9 hPa 0,0 l/m 2 min 0 min 784 W/m 19,3 km/h (3 Bft) 97,87 %
06.05.2020 11:06 16,2 C 20,6 C 21,1 C 48 % 1025,8 hPa 0,0 l/m 2 min 0 min 789 W/m 12,9 km/h (3 Bft) 95,65 %
06.05.2020 11:08 16,2 C 21,1 C 20,6 C 47 % 1025,9 hPa 0,0 l/m 2 min 0 min 791 W/m 6,4 km/h (2 Bft) 97,87 %
06.05.2020 11:10 16,3 C 22,2 C 21,7 C 50 % 1025,8 hPa 0,0 l/m 2 min 0 min 794 W/m 6,4 km/h (2 Bft) 97,87 %
06.05.2020 11:12 16,4 C 21,7 C 21,1 C 48 % 1025,9 hPa 0,0 l/m 2 min 0 min 800 W/m 6,4 km/h (2 Bft) 97,87 %
06.05.2020 11:14 16,4 C 21,1 C 20,6 C 47 % 1025,8 hPa 0,0 l/m 2 min 0 min 802 W/m 22,5 km/h (4 Bft) 97,87 %
06.05.2020 11:16 16,6 C 20,6 C 20,0 C 47 % 1025,8 hPa 0,0 l/m 2 min 0 min 804 W/m 16,1 km/h (3 Bft) 97,87 %
06.05.2020 11:18 16,6 C 20,6 C 20,0 C 47 % 1025,8 hPa 0,0 l/m 2 min 0 min 805 W/m 16,1 km/h (3 Bft) 95,65 %
06.05.2020 11:20 16,7 C 21,1 C 18,3 C 47 % 1025,8 hPa 0,0 l/m 2 min 0 min 809 W/m 12,9 km/h (3 Bft) 95,74 %
06.05.2020 11:22 16,7 C 21,1 C 18,3 C 46 % 1025,9 hPa 0,0 l/m 2 min 0 min 810 W/m 6,4 km/h (2 Bft) 97,87 %
06.05.2020 11:24 16,7 C 21,1 C 17,8 C 46 % 1025,8 hPa 0,0 l/m 2 min 0 min 812 W/m 12,9 km/h (3 Bft) 97,87 %
06.05.2020 11:26 16,7 C 20,6 C 17,8 C 45 % 1025,9 hPa 0,0 l/m 2 min 0 min 817 W/m 12,9 km/h (3 Bft) 97,87 %
06.05.2020 11:28 16,8 C 21,7 C 17,2 C 45 % 1025,9 hPa 0,0 l/m 2 min 0 min 823 W/m 12,9 km/h (3 Bft) 97,83 %
06.05.2020 11:30 16,8 C 21,1 C 17,2 C 45 % 1025,9 hPa 0,0 l/m 2 min 0 min 830 W/m 12,9 km/h (3 Bft) 97,87 %
06.05.2020 11:32 16,8 C 21,7 C 18,3 C 45 % 1025,9 hPa 0,0 l/m 2 min 0 min 834 W/m 3,2 km/h (1 Bft) 95,74 %
06.05.2020 11:34 16,8 C 21,7 C 17,2 C 45 % 1025,9 hPa 0,0 l/m 2 min 0 min 840 W/m 9,7 km/h (2 Bft) 97,87 %
06.05.2020 11:36 16,8 C 22,8 C 16,7 C 47 % 1025,9 hPa 0,0 l/m 2 min 0 min 845 W/m 3,2 km/h (1 Bft) 97,87 %
06.05.2020 11:38 16,9 C 23,9 C 16,7 C 49 % 1025,9 hPa 0,0 l/m 2 min 0 min 846 W/m 3,2 km/h (1 Bft) 97,92 %
06.05.2020 11:40 16,9 C 22,8 C 16,7 C 45 % 1026,0 hPa 0,0 l/m 2 min 0 min 850 W/m 12,9 km/h (3 Bft) 97,87 %
06.05.2020 11:42 17,0 C 22,8 C 17,8 C 44 % 1025,9 hPa 0,0 l/m 2 min 0 min 854 W/m 12,9 km/h (3 Bft) 97,14 %
06.05.2020 11:44 17,1 C 21,1 C 18,9 C 44 % 1025,9 hPa 0,0 l/m 2 min 0 min 858 W/m 19,3 km/h (3 Bft) 98,31 %
06.05.2020 11:46 17,1 C 21,7 C 18,9 C 43 % 1025,9 hPa 0,0 l/m 2 min 0 min 862 W/m 12,9 km/h (3 Bft) 97,14 %
06.05.2020 11:48 17,1 C 21,7 C 18,9 C 42 % 1025,9 hPa 0,0 l/m 2 min 0 min 863 W/m 6,4 km/h (2 Bft) 97,87 %
06.05.2020 11:50 17,1 C 21,7 C 18,3 C 44 % 1025,9 hPa 0,0 l/m 2 min 0 min 865 W/m 19,3 km/h (3 Bft) 97,87 %
06.05.2020 11:52 17,2 C 22,8 C 18,9 C 45 % 1025,9 hPa 0,0 l/m 2 min 0 min 868 W/m 6,4 km/h (2 Bft) 98,28 %
06.05.2020 11:54 17,2 C 23,3 C 18,9 C 45 % 1026,0 hPa 0,0 l/m 2 min 0 min 870 W/m 3,2 km/h (1 Bft) 100,00 %
06.05.2020 11:56 17,3 C 23,3 C 20,0 C 45 % 1025,9 hPa 0,0 l/m 2 min 0 min 874 W/m 9,7 km/h (2 Bft) 98,31 %
06.05.2020 11:58 17,4 C 23,9 C 21,1 C 46 % 1025,9 hPa 0,0 l/m 2 min 0 min 876 W/m 3,2 km/h (1 Bft) 100,00 %
06.05.2020 12:00 17,5 C 23,3 C 20,6 C 46 % 1025,9 hPa 0,0 l/m 2 min 0 min 879 W/m 6,4 km/h (2 Bft) 100,00 %
06.05.2020 12:02 17,6 C 23,9 C 20,6 C 45 % 1025,9 hPa 0,0 l/m 2 min 0 min 882 W/m 3,2 km/h (1 Bft) 100,00 %
06.05.2020 12:04 17,7 C 24,4 C 20,0 C 47 % 1025,9 hPa 0,0 l/m 2 min 0 min 883 W/m 6,4 km/h (2 Bft) 97,87 %
06.05.2020 12:08 17,9 C 23,3 C 19,4 C 43 % 1025,9 hPa 0,0 l/m 4 min 0 min 889 W/m 16,1 km/h (3 Bft) 97,87 %
06.05.2020 12:10 18,0 C 23,9 C 20,0 C 45 % 1025,9 hPa 0,0 l/m 2 min 0 min 891 W/m 6,4 km/h (2 Bft) 97,87 %
06.05.2020 12:12 18,1 C 23,9 C 20,6 C 46 % 1026,0 hPa 0,0 l/m 2 min 0 min 896 W/m 6,4 km/h (2 Bft) 97,14 %
06.05.2020 12:14 18,2 C 23,9 C 19,4 C 42 % 1025,9 hPa 0,0 l/m 2 min 0 min 898 W/m 6,4 km/h (2 Bft) 96,55 %
06.05.2020 12:16 18,2 C 23,9 C 18,9 C 41 % 1025,9 hPa 0,0 l/m 2 min 0 min 902 W/m 6,4 km/h (2 Bft) 97,14 %
06.05.2020 12:18 18,2 C 23,9 C 19,4 C 42 % 1025,8 hPa 0,0 l/m 2 min 0 min 903 W/m 6,4 km/h (2 Bft) 96,61 %
06.05.2020 12:20 18,3 C 24,4 C 19,4 C 46 % 1025,8 hPa 0,0 l/m 2 min 0 min 903 W/m 3,2 km/h (1 Bft) 97,87 %
06.05.2020 12:22 18,4 C 24,4 C 18,9 C 45 % 1025,8 hPa 0,0 l/m 2 min 0 min 904 W/m 6,4 km/h (2 Bft) 97,87 %
06.05.2020 12:24 18,4 C 24,4 C 19,4 C 46 % 1025,8 hPa 0,0 l/m 2 min 0 min 909 W/m 6,4 km/h (2 Bft) 97,14 %
06.05.2020 12:26 18,6 C 25,0 C 19,4 C 47 % 1025,8 hPa 0,0 l/m 2 min 0 min 910 W/m 6,4 km/h (2 Bft) 98,28 %
06.05.2020 12:28 18,7 C 26,1 C 19,4 C 49 % 1025,9 hPa 0,0 l/m 2 min 0 min 909 W/m 3,2 km/h (1 Bft) 97,14 %
06.05.2020 12:30 18,8 C 25,6 C 19,4 C 45 % 1025,9 hPa 0,0 l/m 2 min 0 min 911 W/m 3,2 km/h (1 Bft) 97,87 %
06.05.2020 12:32 18,8 C 25,0 C 20,0 C 45 % 1025,9 hPa 0,0 l/m 2 min 0 min 912 W/m 6,4 km/h (2 Bft) 96,61 %
06.05.2020 12:34 18,8 C 23,3 C 19,4 C 41 % 1025,8 hPa 0,0 l/m 2 min 0 min 916 W/m 19,3 km/h (3 Bft) 93,62 %
06.05.2020 12:36 18,8 C 23,3 C 20,0 C 41 % 1025,9 hPa 0,0 l/m 2 min 0 min 918 W/m 6,4 km/h (2 Bft) 95,65 %
06.05.2020 12:38 18,8 C 23,9 C 20,0 C 43 % 1025,8 hPa 0,0 l/m 2 min 0 min 920 W/m 6,4 km/h (2 Bft) 97,14 %
06.05.2020 12:40 18,9 C 25,0 C 21,1 C 45 % 1025,8 hPa 0,0 l/m 2 min 0 min 923 W/m 3,2 km/h (1 Bft) 97,87 %
06.05.2020 12:42 18,9 C 25,0 C 21,1 C 42 % 1025,8 hPa 0,0 l/m 2 min 0 min 928 W/m 0,0 km/h (0 Bft) 96,61 %
06.05.2020 12:44 18,9 C 25,0 C 22,8 C 43 % 1025,8 hPa 0,0 l/m 2 min 0 min 927 W/m 6,4 km/h (2 Bft) 100,00 %
06.05.2020 12:46 18,9 C 25,0 C 23,3 C 44 % 1025,8 hPa 0,0 l/m 2 min 0 min 928 W/m 6,4 km/h (2 Bft) 95,74 %
06.05.2020 12:48 18,9 C 24,4 C 22,8 C 42 % 1025,8 hPa 0,0 l/m 2 min 0 min 929 W/m 3,2 km/h (1 Bft) 100,00 %
06.05.2020 12:50 19,0 C 25,0 C 23,3 C 43 % 1025,8 hPa 0,0 l/m 2 min 0 min 932 W/m 3,2 km/h (1 Bft) 100,00 %
06.05.2020 12:52 19,1 C 26,1 C 23,9 C 45 % 1025,8 hPa 0,0 l/m 2 min 0 min 935 W/m 3,2 km/h (1 Bft) 100,00 %
06.05.2020 12:54 19,1 C 26,1 C 23,3 C 45 % 1025,9 hPa 0,0 l/m 2 min 0 min 939 W/m 6,4 km/h (2 Bft) 97,87 %
06.05.2020 12:56 19,2 C 25,0 C 22,2 C 44 % 1025,9 hPa 0,0 l/m 2 min 0 min 938 W/m 6,4 km/h (2 Bft) 97,87 %
06.05.2020 12:58 19,2 C 25,0 C 21,1 C 45 % 1025,8 hPa 0,0 l/m 2 min 0 min 942 W/m 6,4 km/h (2 Bft) 100,00 %
06.05.2020 13:00 19,2 C 25,0 C 20,6 C 41 % 1025,8 hPa 0,0 l/m 2 min 0 min 941 W/m 6,4 km/h (2 Bft) 100,00 %
06.05.2020 13:02 19,2 C 25,6 C 20,0 C 40 % 1025,8 hPa 0,0 l/m 2 min 0 min 939 W/m 6,4 km/h (2 Bft) 100,00 %
06.05.2020 13:04 19,2 C 25,0 C 21,1 C 43 % 1025,8 hPa 0,0 l/m 2 min 0 min 942 W/m 6,4 km/h (2 Bft) 100,00 %
06.05.2020 13:06 19,2 C 25,0 C 22,2 C 45 % 1025,7 hPa 0,0 l/m 2 min 0 min 945 W/m 9,7 km/h (2 Bft) 100,00 %
06.05.2020 13:08 19,3 C 25,0 C 22,8 C 44 % 1025,7 hPa 0,0 l/m 2 min 0 min 944 W/m 6,4 km/h (2 Bft) 100,00 %
06.05.2020 13:10 19,3 C 25,0 C 21,7 C 43 % 1025,7 hPa 0,0 l/m 2 min 0 min 946 W/m 6,4 km/h (2 Bft) 100,00 %
06.05.2020 13:12 19,3 C 25,0 C 21,7 C 45 % 1025,7 hPa 0,0 l/m 2 min 0 min 949 W/m 3,2 km/h (1 Bft) 100,00 %
06.05.2020 13:14 19,3 C 25,0 C 21,7 C 43 % 1025,7 hPa 0,0 l/m 2 min 0 min 947 W/m 6,4 km/h (2 Bft) 100,00 %
06.05.2020 13:16 19,4 C 25,6 C 21,7 C 43 % 1025,7 hPa 0,0 l/m 2 min 0 min 945 W/m 3,2 km/h (1 Bft) 100,00 %
06.05.2020 13:18 19,4 C 26,1 C 22,8 C 46 % 1025,7 hPa 0,0 l/m 2 min 0 min 947 W/m 3,2 km/h (1 Bft) 100,00 %
06.05.2020 13:20 19,5 C 26,1 C 24,4 C 49 % 1025,7 hPa 0,0 l/m 2 min 0 min 945 W/m 3,2 km/h (1 Bft) 100,00 %
06.05.2020 13:22 19,6 C 25,6 C 25,0 C 46 % 1025,7 hPa 0,0 l/m 2 min 0 min 942 W/m 6,4 km/h (2 Bft) 100,00 %
06.05.2020 13:24 19,7 C 26,1 C 27,2 C 45 % 1025,7 hPa 0,0 l/m 2 min 0 min 944 W/m 6,4 km/h (2 Bft) 100,00 %
06.05.2020 13:26 19,7 C 25,6 C 28,3 C 43 % 1025,7 hPa 0,0 l/m 2 min 0 min 943 W/m 6,4 km/h (2 Bft) 100,00 %
06.05.2020 13:28 19,8 C 26,1 C 30,0 C 46 % 1025,6 hPa 0,0 l/m 2 min 0 min 946 W/m 0,0 km/h (0 Bft) 100,00 %
06.05.2020 13:30 19,8 C 26,1 C 30,0 C 43 % 1025,6 hPa 0,0 l/m 2 min 0 min 941 W/m 6,4 km/h (2 Bft) 100,00 %
06.05.2020 13:32 19,8 C 25,0 C 28,9 C 42 % 1025,6 hPa 0,0 l/m 2 min 0 min 941 W/m 9,7 km/h (2 Bft) 100,00 %
06.05.2020 13:34 19,8 C 25,0 C 28,9 C 43 % 1025,6 hPa 0,0 l/m 2 min 0 min 942 W/m 6,4 km/h (2 Bft) 100,00 %
06.05.2020 13:36 19,8 C 25,0 C 30,0 C 45 % 1025,5 hPa 0,0 l/m 2 min 0 min 943 W/m 3,2 km/h (1 Bft) 97,87 %
06.05.2020 13:38 19,9 C 24,4 C 29,4 C 44 % 1025,6 hPa 0,0 l/m 2 min 0 min 942 W/m 12,9 km/h (3 Bft) 97,87 %
06.05.2020 13:40 19,8 C 24,4 C 28,3 C 42 % 1025,5 hPa 0,0 l/m 2 min 0 min 940 W/m 12,9 km/h (3 Bft) 100,00 %
06.05.2020 13:42 19,8 C 24,4 C 27,8 C 40 % 1025,5 hPa 0,0 l/m 2 min 0 min 940 W/m 3,2 km/h (1 Bft) 100,00 %
06.05.2020 13:44 19,8 C 24,4 C 27,8 C 41 % 1025,4 hPa 0,0 l/m 2 min 0 min 943 W/m 12,9 km/h (3 Bft) 97,83 %
06.05.2020 13:46 19,7 C 23,3 C 27,2 C 41 % 1025,5 hPa 0,0 l/m 2 min 0 min 941 W/m 16,1 km/h (3 Bft) 100,00 %
06.05.2020 13:48 19,6 C 23,3 C 27,2 C 40 % 1025,5 hPa 0,0 l/m 2 min 0 min 945 W/m 12,9 km/h (3 Bft) 98,28 %
06.05.2020 13:50 19,6 C 23,3 C 26,7 C 41 % 1025,5 hPa 0,0 l/m 2 min 0 min 942 W/m 12,9 km/h (3 Bft) 100,00 %
06.05.2020 13:52 19,5 C 23,9 C 27,8 C 43 % 1025,5 hPa 0,0 l/m 2 min 0 min 941 W/m 6,4 km/h (2 Bft) 98,31 %
06.05.2020 13:54 19,4 C 23,3 C 27,8 C 41 % 1025,5 hPa 0,0 l/m 2 min 0 min 941 W/m 12,9 km/h (3 Bft) 95,74 %
06.05.2020 13:56 19,4 C 23,3 C 27,8 C 42 % 1025,5 hPa 0,0 l/m 2 min 0 min 943 W/m 9,7 km/h (2 Bft) 100,00 %
06.05.2020 13:58 19,3 C 22,8 C 27,8 C 41 % 1025,5 hPa 0,0 l/m 2 min 0 min 940 W/m 12,9 km/h (3 Bft) 100,00 %
06.05.2020 14:00 19,3 C 23,3 C 27,8 C 40 % 1025,4 hPa 0,0 l/m 2 min 0 min 939 W/m 12,9 km/h (3 Bft) 98,28 %
06.05.2020 14:02 19,2 C 23,9 C 28,3 C 40 % 1025,5 hPa 0,0 l/m 2 min 0 min 933 W/m 9,7 km/h (2 Bft) 95,74 %
06.05.2020 14:04 19,2 C 23,3 C 27,8 C 40 % 1025,4 hPa 0,0 l/m 2 min 0 min 934 W/m 12,9 km/h (3 Bft) 95,74 %
06.05.2020 14:06 19,2 C 23,9 C 27,8 C 42 % 1025,3 hPa 0,0 l/m 2 min 0 min 936 W/m 19,3 km/h (3 Bft) 95,74 %
06.05.2020 14:08 19,1 C 22,8 C 23,9 C 41 % 1025,2 hPa 0,0 l/m 2 min 0 min 933 W/m 35,4 km/h (5 Bft) 100,00 %
06.05.2020 14:10 19,1 C 23,9 C 25,0 C 44 % 1025,4 hPa 0,0 l/m 2 min 0 min 933 W/m 6,4 km/h (2 Bft) 94,83 %
06.05.2020 14:12 19,1 C 24,4 C 26,7 C 45 % 1025,4 hPa 0,0 l/m 2 min 0 min 932 W/m 12,9 km/h (3 Bft) 88,57 %
06.05.2020 14:14 19,1 C 24,4 C 27,2 C 42 % 1025,4 hPa 0,0 l/m 2 min 0 min 928 W/m 9,7 km/h (2 Bft) 94,92 %
06.05.2020 14:16 19,1 C 23,9 C 27,2 C 41 % 1025,4 hPa 0,0 l/m 2 min 0 min 927 W/m 9,7 km/h (2 Bft) 95,74 %
06.05.2020 14:18 19,1 C 25,0 C 27,8 C 43 % 1025,4 hPa 0,0 l/m 2 min 0 min 926 W/m 3,2 km/h (1 Bft) 95,74 %
06.05.2020 14:20 19,1 C 23,9 C 26,1 C 42 % 1025,4 hPa 0,0 l/m 2 min 0 min 925 W/m 16,1 km/h (3 Bft) 95,65 %
06.05.2020 14:22 19,2 C 24,4 C 26,1 C 42 % 1025,4 hPa 0,0 l/m 2 min 0 min 922 W/m 9,7 km/h (2 Bft) 95,74 %
06.05.2020 14:24 19,2 C 24,4 C 26,1 C 43 % 1025,3 hPa 0,0 l/m 2 min 0 min 923 W/m 6,4 km/h (2 Bft) 94,29 %
06.05.2020 14:26 19,3 C 23,9 C 26,1 C 42 % 1025,3 hPa 0,0 l/m 2 min 0 min 920 W/m 9,7 km/h (2 Bft) 98,31 %
06.05.2020 14:28 19,3 C 23,9 C 25,0 C 40 % 1025,3 hPa 0,0 l/m 2 min 0 min 921 W/m 9,7 km/h (2 Bft) 94,29 %
06.05.2020 14:30 19,3 C 23,3 C 23,3 C 40 % 1025,2 hPa 0,0 l/m 2 min 0 min 920 W/m 16,1 km/h (3 Bft) 95,74 %
06.05.2020 14:32 19,2 C 23,3 C 22,8 C 40 % 1025,2 hPa 0,0 l/m 2 min 0 min 919 W/m 19,3 km/h (3 Bft) 93,62 %
06.05.2020 14:34 19,2 C 22,2 C 22,2 C 40 % 1025,2 hPa 0,0 l/m 2 min 0 min 918 W/m 19,3 km/h (3 Bft) 91,30 %
06.05.2020 14:36 19,1 C 22,8 C 21,7 C 39 % 1025,2 hPa 0,0 l/m 2 min 0 min 914 W/m 0,0 km/h (0 Bft) 93,22 %
06.05.2020 14:38 19,0 C 22,8 C 21,1 C 40 % 1025,2 hPa 0,0 l/m 2 min 0 min 912 W/m 3,2 km/h (1 Bft) 91,43 %
06.05.2020 14:40 19,0 C 22,8 C 21,1 C 39 % 1025,1 hPa 0,0 l/m 2 min 0 min 912 W/m 12,9 km/h (3 Bft) 93,62 %
06.05.2020 14:42 18,9 C 22,2 C 20,0 C 39 % 1025,1 hPa 0,0 l/m 2 min 0 min 908 W/m 19,3 km/h (3 Bft) 95,74 %
06.05.2020 14:44 18,9 C 22,8 C 20,0 C 40 % 1025,1 hPa 0,0 l/m 2 min 0 min 906 W/m 16,1 km/h (3 Bft) 93,62 %
06.05.2020 14:46 18,9 C 22,8 C 19,4 C 40 % 1025,1 hPa 0,0 l/m 2 min 0 min 905 W/m 16,1 km/h (3 Bft) 93,62 %
06.05.2020 14:48 18,9 C 23,3 C 19,4 C 40 % 1025,1 hPa 0,0 l/m 2 min 0 min 903 W/m 12,9 km/h (3 Bft) 93,48 %
06.05.2020 14:50 18,9 C 23,9 C 19,4 C 40 % 1025,2 hPa 0,0 l/m 2 min 0 min 900 W/m 6,4 km/h (2 Bft) 93,62 %
06.05.2020 14:52 18,9 C 23,9 C 19,4 C 41 % 1025,2 hPa 0,0 l/m 2 min 0 min 899 W/m 19,3 km/h (3 Bft) 95,74 %
06.05.2020 14:54 19,0 C 23,9 C 19,4 C 40 % 1025,2 hPa 0,0 l/m 2 min 0 min 896 W/m 9,7 km/h (2 Bft) 93,62 %
06.05.2020 14:56 19,1 C 24,4 C 19,4 C 40 % 1025,2 hPa 0,0 l/m 2 min 0 min 895 W/m 9,7 km/h (2 Bft) 93,62 %
06.05.2020 14:58 19,1 C 25,0 C 19,4 C 42 % 1025,2 hPa 0,0 l/m 2 min 0 min 895 W/m 6,4 km/h (2 Bft) 97,83 %
06.05.2020 15:00 19,2 C 24,4 C 19,4 C 43 % 1025,2 hPa 0,0 l/m 2 min 0 min 893 W/m 9,7 km/h (2 Bft) 95,74 %
06.05.2020 15:02 19,2 C 23,9 C 20,0 C 41 % 1025,2 hPa 0,0 l/m 2 min 0 min 889 W/m 9,7 km/h (2 Bft) 93,62 %
06.05.2020 15:04 19,3 C 23,3 C 19,4 C 40 % 1025,1 hPa 0,0 l/m 2 min 0 min 884 W/m 16,1 km/h (3 Bft) 95,74 %
06.05.2020 15:06 19,3 C 23,3 C 19,4 C 39 % 1025,1 hPa 0,0 l/m 2 min 0 min 880 W/m 12,9 km/h (3 Bft) 93,62 %
06.05.2020 15:08 19,3 C 24,4 C 19,4 C 39 % 1025,1 hPa 0,0 l/m 2 min 0 min 879 W/m 3,2 km/h (1 Bft) 98,15 %
06.05.2020 15:10 19,3 C 24,4 C 19,4 C 40 % 1025,1 hPa 0,0 l/m 2 min 0 min 878 W/m 6,4 km/h (2 Bft) 95,65 %
06.05.2020 15:12 19,4 C 23,9 C 19,4 C 39 % 1025,1 hPa 0,0 l/m 2 min 0 min 877 W/m 16,1 km/h (3 Bft) 100,00 %
06.05.2020 15:14 19,3 C 22,8 C 18,9 C 38 % 1025,0 hPa 0,0 l/m 2 min 0 min 873 W/m 12,9 km/h (3 Bft) 100,00 %
06.05.2020 15:16 19,3 C 23,3 C 18,3 C 39 % 1025,1 hPa 0,0 l/m 2 min 0 min 870 W/m 6,4 km/h (2 Bft) 100,00 %
06.05.2020 15:18 19,3 C 23,9 C 18,9 C 40 % 1025,1 hPa 0,0 l/m 2 min 0 min 869 W/m 12,9 km/h (3 Bft) 97,87 %
06.05.2020 15:20 19,3 C 23,9 C 18,9 C 38 % 1025,0 hPa 0,0 l/m 2 min 0 min 866 W/m 6,4 km/h (2 Bft) 100,00 %
06.05.2020 15:22 19,3 C 23,3 C 18,9 C 39 % 1025,0 hPa 0,0 l/m 2 min 0 min 861 W/m 12,9 km/h (3 Bft) 97,83 %
06.05.2020 15:24 19,3 C 23,3 C 18,3 C 38 % 1025,0 hPa 0,0 l/m 2 min 0 min 858 W/m 16,1 km/h (3 Bft) 100,00 %
06.05.2020 15:26 19,3 C 23,9 C 18,9 C 39 % 1025,0 hPa 0,0 l/m 2 min 0 min 856 W/m 12,9 km/h (3 Bft) 100,00 %
06.05.2020 15:28 19,3 C 23,9 C 18,9 C 40 % 1024,9 hPa 0,0 l/m 2 min 0 min 854 W/m 12,9 km/h (3 Bft) 100,00 %
06.05.2020 15:30 19,3 C 23,9 C 19,4 C 40 % 1025,0 hPa 0,0 l/m 2 min 0 min 848 W/m 6,4 km/h (2 Bft) 97,87 %
06.05.2020 15:32 19,4 C 23,9 C 19,4 C 41 % 1025,0 hPa 0,0 l/m 2 min 0 min 844 W/m 9,7 km/h (2 Bft) 100,00 %
06.05.2020 15:34 19,4 C 24,4 C 20,0 C 41 % 1025,0 hPa 0,0 l/m 2 min 0 min 839 W/m 9,7 km/h (2 Bft) 100,00 %
06.05.2020 15:36 19,6 C 24,4 C 20,0 C 43 % 1025,0 hPa 0,0 l/m 2 min 0 min 836 W/m 9,7 km/h (2 Bft) 100,00 %
06.05.2020 15:38 19,6 C 24,4 C 20,0 C 42 % 1025,0 hPa 0,0 l/m 2 min 0 min 834 W/m 9,7 km/h (2 Bft) 100,00 %
06.05.2020 15:40 19,7 C 25,0 C 20,0 C 43 % 1025,0 hPa 0,0 l/m 2 min 0 min 829 W/m 6,4 km/h (2 Bft) 97,87 %
06.05.2020 15:42 19,7 C 23,9 C 19,4 C 39 % 1025,0 hPa 0,0 l/m 2 min 0 min 826 W/m 6,4 km/h (2 Bft) 100,00 %
06.05.2020 15:44 19,8 C 23,3 C 19,4 C 39 % 1025,0 hPa 0,0 l/m 2 min 0 min 822 W/m 12,9 km/h (3 Bft) 100,00 %
06.05.2020 15:46 19,7 C 22,8 C 18,9 C 37 % 1025,0 hPa 0,0 l/m 2 min 0 min 819 W/m 12,9 km/h (3 Bft) 100,00 %
06.05.2020 15:48 19,7 C 23,3 C 18,9 C 38 % 1025,0 hPa 0,0 l/m 2 min 0 min 813 W/m 6,4 km/h (2 Bft) 100,00 %
06.05.2020 15:50 19,7 C 23,3 C 18,3 C 38 % 1024,9 hPa 0,0 l/m 2 min 0 min 811 W/m 3,2 km/h (1 Bft) 100,00 %
06.05.2020 15:52 19,7 C 24,4 C 18,9 C 40 % 1024,9 hPa 0,0 l/m 2 min 0 min 805 W/m 6,4 km/h (2 Bft) 100,00 %
06.05.2020 15:54 19,8 C 24,4 C 18,9 C 41 % 1024,9 hPa 0,0 l/m 2 min 0 min 804 W/m 3,2 km/h (1 Bft) 100,00 %
06.05.2020 15:56 19,8 C 24,4 C 18,9 C 41 % 1024,9 hPa 0,0 l/m 2 min 0 min 802 W/m 6,4 km/h (2 Bft) 100,00 %
06.05.2020 15:58 19,9 C 23,9 C 20,0 C 40 % 1024,9 hPa 0,0 l/m 2 min 0 min 797 W/m 12,9 km/h (3 Bft) 100,00 %
06.05.2020 16:00 19,9 C 23,9 C 20,0 C 38 % 1024,8 hPa 0,0 l/m 2 min 0 min 792 W/m 16,1 km/h (3 Bft) 100,00 %
06.05.2020 16:02 20,0 C 24,4 C 20,0 C 39 % 1024,9 hPa 0,0 l/m 2 min 0 min 789 W/m 6,4 km/h (2 Bft) 100,00 %
06.05.2020 16:04 20,0 C 24,4 C 18,9 C 38 % 1024,8 hPa 0,0 l/m 2 min 0 min 781 W/m 3,2 km/h (1 Bft) 100,00 %
06.05.2020 16:06 20,1 C 24,4 C 19,4 C 40 % 1024,8 hPa 0,0 l/m 2 min 0 min 779 W/m 3,2 km/h (1 Bft) 100,00 %
06.05.2020 16:08 20,1 C 24,4 C 19,4 C 39 % 1024,8 hPa 0,0 l/m 2 min 0 min 774 W/m 6,4 km/h (2 Bft) 100,00 %
06.05.2020 16:10 20,2 C 24,4 C 19,4 C 38 % 1024,8 hPa 0,0 l/m 2 min 0 min 772 W/m 6,4 km/h (2 Bft) 100,00 %
06.05.2020 16:12 20,2 C 24,4 C 20,0 C 41 % 1024,8 hPa 0,0 l/m 2 min 0 min 768 W/m 9,7 km/h (2 Bft) 100,00 %
06.05.2020 16:14 20,3 C 24,4 C 20,0 C 40 % 1024,9 hPa 0,0 l/m 2 min 0 min 763 W/m 9,7 km/h (2 Bft) 100,00 %
06.05.2020 16:16 20,3 C 24,4 C 20,0 C 39 % 1024,9 hPa 0,0 l/m 2 min 0 min 756 W/m 3,2 km/h (1 Bft) 100,00 %
06.05.2020 16:18 20,4 C 23,9 C 19,4 C 39 % 1024,8 hPa 0,0 l/m 2 min 0 min 750 W/m 6,4 km/h (2 Bft) 100,00 %
06.05.2020 16:20 20,4 C 24,4 C 20,0 C 41 % 1024,8 hPa 0,0 l/m 2 min 0 min 747 W/m 3,2 km/h (1 Bft) 100,00 %
06.05.2020 16:22 20,5 C 25,0 C 20,0 C 40 % 1024,8 hPa 0,0 l/m 2 min 0 min 741 W/m 3,2 km/h (1 Bft) 97,87 %
06.05.2020 16:24 20,6 C 24,4 C 20,0 C 40 % 1024,8 hPa 0,0 l/m 2 min 0 min 736 W/m 3,2 km/h (1 Bft) 100,00 %
06.05.2020 16:26 20,6 C 25,0 C 20,6 C 42 % 1024,8 hPa 0,0 l/m 2 min 0 min 732 W/m 3,2 km/h (1 Bft) 100,00 %
06.05.2020 16:28 20,7 C 25,0 C 20,0 C 41 % 1024,8 hPa 0,0 l/m 2 min 0 min 727 W/m 6,4 km/h (2 Bft) 100,00 %
06.05.2020 16:30 20,7 C 24,4 C 20,0 C 39 % 1024,7 hPa 0,0 l/m 2 min 0 min 722 W/m 3,2 km/h (1 Bft) 100,00 %
06.05.2020 16:32 20,7 C 24,4 C 18,9 C 37 % 1024,7 hPa 0,0 l/m 2 min 0 min 717 W/m 6,4 km/h (2 Bft) 100,00 %
06.05.2020 16:34 20,8 C 24,4 C 19,4 C 40 % 1024,7 hPa 0,0 l/m 2 min 0 min 711 W/m 6,4 km/h (2 Bft) 100,00 %
06.05.2020 16:36 20,8 C 24,4 C 19,4 C 40 % 1024,7 hPa 0,0 l/m 2 min 0 min 707 W/m 12,9 km/h (3 Bft) 100,00 %
06.05.2020 16:38 20,8 C 23,9 C 19,4 C 38 % 1024,7 hPa 0,0 l/m 2 min 0 min 703 W/m 12,9 km/h (3 Bft) 100,00 %
06.05.2020 16:40 20,8 C 23,9 C 19,4 C 39 % 1024,7 hPa 0,0 l/m 2 min 0 min 695 W/m 9,7 km/h (2 Bft) 100,00 %
06.05.2020 16:42 20,9 C 23,9 C 19,4 C 38 % 1024,6 hPa 0,0 l/m 2 min 0 min 691 W/m 6,4 km/h (2 Bft) 100,00 %
06.05.2020 16:44 20,9 C 24,4 C 19,4 C 39 % 1024,6 hPa 0,0 l/m 2 min 0 min 688 W/m 3,2 km/h (1 Bft) 100,00 %
06.05.2020 16:46 20,9 C 25,0 C 19,4 C 40 % 1024,6 hPa 0,0 l/m 2 min 0 min 685 W/m 9,7 km/h (2 Bft) 100,00 %
06.05.2020 16:48 21,0 C 24,4 C 19,4 C 39 % 1024,7 hPa 0,0 l/m 2 min 0 min 678 W/m 9,7 km/h (2 Bft) 100,00 %
06.05.2020 16:50 21,0 C 23,9 C 19,4 C 39 % 1024,6 hPa 0,0 l/m 2 min 0 min 673 W/m 6,4 km/h (2 Bft) 100,00 %
06.05.2020 16:52 21,0 C 23,9 C 19,4 C 39 % 1024,6 hPa 0,0 l/m 2 min 0 min 667 W/m 6,4 km/h (2 Bft) 97,83 %
06.05.2020 16:54 20,9 C 23,9 C 19,4 C 39 % 1024,6 hPa 0,0 l/m 2 min 0 min 662 W/m 3,2 km/h (1 Bft) 95,74 %
06.05.2020 16:56 20,9 C 23,3 C 18,9 C 37 % 1024,6 hPa 0,0 l/m 2 min 0 min 655 W/m 12,9 km/h (3 Bft) 97,87 %
06.05.2020 16:58 20,9 C 23,3 C 18,9 C 37 % 1024,6 hPa 0,0 l/m 2 min 0 min 651 W/m 6,4 km/h (2 Bft) 95,74 %
06.05.2020 17:00 20,9 C 22,8 C 19,4 C 38 % 1024,5 hPa 0,0 l/m 2 min 0 min 643 W/m 16,1 km/h (3 Bft) 97,87 %
06.05.2020 17:02 20,9 C 23,3 C 20,6 C 39 % 1024,5 hPa 0,0 l/m 2 min 0 min 638 W/m 6,4 km/h (2 Bft) 95,74 %
06.05.2020 17:04 20,9 C 23,9 C 21,1 C 42 % 1024,5 hPa 0,0 l/m 2 min 0 min 635 W/m 6,4 km/h (2 Bft) 95,65 %
06.05.2020 17:06 20,9 C 23,9 C 20,6 C 39 % 1024,4 hPa 0,0 l/m 2 min 0 min 629 W/m 12,9 km/h (3 Bft) 95,74 %
06.05.2020 17:08 21,0 C 23,9 C 20,0 C 41 % 1024,5 hPa 0,0 l/m 2 min 0 min 618 W/m 3,2 km/h (1 Bft) 93,62 %
06.05.2020 17:10 21,1 C 24,4 C 20,0 C 42 % 1024,6 hPa 0,0 l/m 2 min 0 min 614 W/m 6,4 km/h (2 Bft) 93,62 %
06.05.2020 17:12 21,1 C 23,3 C 19,4 C 39 % 1024,4 hPa 0,0 l/m 2 min 0 min 610 W/m 12,9 km/h (3 Bft) 95,74 %
06.05.2020 17:14 21,1 C 23,9 C 19,4 C 41 % 1024,5 hPa 0,0 l/m 2 min 0 min 604 W/m 3,2 km/h (1 Bft) 95,74 %
06.05.2020 17:16 21,1 C 23,9 C 19,4 C 41 % 1024,4 hPa 0,0 l/m 2 min 0 min 598 W/m 9,7 km/h (2 Bft) 95,65 %
06.05.2020 17:18 21,1 C 23,9 C 19,4 C 43 % 1024,5 hPa 0,0 l/m 2 min 0 min 594 W/m 6,4 km/h (2 Bft) 93,62 %
06.05.2020 17:20 21,1 C 23,9 C 19,4 C 42 % 1024,5 hPa 0,0 l/m 2 min 0 min 586 W/m 6,4 km/h (2 Bft) 93,62 %
06.05.2020 17:22 21,1 C 23,9 C 18,9 C 42 % 1024,5 hPa 0,0 l/m 2 min 0 min 580 W/m 3,2 km/h (1 Bft) 95,74 %
06.05.2020 17:24 21,2 C 23,9 C 19,4 C 41 % 1024,5 hPa 0,0 l/m 2 min 0 min 576 W/m 3,2 km/h (1 Bft) 95,74 %
06.05.2020 17:26 21,1 C 22,8 C 18,9 C 39 % 1024,5 hPa 0,0 l/m 2 min 0 min 571 W/m 9,7 km/h (2 Bft) 93,48 %
06.05.2020 17:28 21,1 C 23,3 C 18,9 C 42 % 1024,5 hPa 0,0 l/m 2 min 0 min 564 W/m 6,4 km/h (2 Bft) 93,62 %
06.05.2020 17:30 21,1 C 23,3 C 19,4 C 41 % 1024,5 hPa 0,0 l/m 2 min 0 min 560 W/m 6,4 km/h (2 Bft) 91,49 %
06.05.2020 17:32 21,1 C 23,3 C 18,9 C 41 % 1024,5 hPa 0,0 l/m 2 min 0 min 553 W/m 9,7 km/h (2 Bft) 93,62 %
06.05.2020 17:34 21,1 C 22,8 C 18,3 C 40 % 1024,6 hPa 0,0 l/m 2 min 0 min 547 W/m 9,7 km/h (2 Bft) 95,74 %
06.05.2020 17:36 21,1 C 22,8 C 18,3 C 41 % 1024,5 hPa 0,0 l/m 2 min 0 min 543 W/m 9,7 km/h (2 Bft) 95,74 %
06.05.2020 17:38 21,1 C 23,3 C 18,3 C 42 % 1024,5 hPa 0,0 l/m 2 min 0 min 536 W/m 6,4 km/h (2 Bft) 97,87 %
06.05.2020 17:40 21,0 C 22,8 C 18,3 C 41 % 1024,5 hPa 0,0 l/m 2 min 0 min 530 W/m 12,9 km/h (3 Bft) 95,65 %
06.05.2020 17:42 21,0 C 23,3 C 18,3 C 42 % 1024,4 hPa 0,0 l/m 2 min 0 min 524 W/m 3,2 km/h (1 Bft) 91,49 %
06.05.2020 17:44 21,0 C 23,3 C 18,9 C 42 % 1024,5 hPa 0,0 l/m 2 min 0 min 517 W/m 3,2 km/h (1 Bft) 95,74 %
06.05.2020 17:46 21,0 C 22,8 C 18,3 C 41 % 1024,4 hPa 0,0 l/m 2 min 0 min 511 W/m 6,4 km/h (2 Bft) 95,74 %
06.05.2020 17:48 21,0 C 22,8 C 18,3 C 42 % 1024,4 hPa 0,0 l/m 2 min 0 min 505 W/m 9,7 km/h (2 Bft) 95,74 %
06.05.2020 17:50 20,9 C 22,8 C 18,3 C 41 % 1024,4 hPa 0,0 l/m 2 min 0 min 500 W/m 12,9 km/h (3 Bft) 95,65 %
06.05.2020 17:52 20,9 C 22,2 C 17,8 C 41 % 1024,4 hPa 0,0 l/m 2 min 0 min 497 W/m 6,4 km/h (2 Bft) 95,74 %
06.05.2020 17:54 20,8 C 22,2 C 18,3 C 40 % 1024,4 hPa 0,0 l/m 2 min 0 min 490 W/m 3,2 km/h (1 Bft) 97,87 %
06.05.2020 17:56 20,8 C 22,2 C 18,3 C 40 % 1024,4 hPa 0,0 l/m 2 min 0 min 485 W/m 3,2 km/h (1 Bft) 97,87 %
06.05.2020 17:58 20,8 C 22,2 C 18,9 C 39 % 1024,4 hPa 0,0 l/m 2 min 0 min 481 W/m 3,2 km/h (1 Bft) 97,87 %
06.05.2020 18:00 20,8 C 22,2 C 18,9 C 41 % 1024,4 hPa 0,0 l/m 2 min 0 min 474 W/m 3,2 km/h (1 Bft) 97,87 %
06.05.2020 18:02 20,7 C 22,2 C 18,3 C 40 % 1024,4 hPa 0,0 l/m 2 min 0 min 469 W/m 6,4 km/h (2 Bft) 95,65 %
06.05.2020 18:04 20,7 C 22,2 C 18,3 C 42 % 1024,5 hPa 0,0 l/m 2 min 0 min 463 W/m 9,7 km/h (2 Bft) 93,62 %
06.05.2020 18:08 20,7 C 22,2 C 17,8 C 40 % 1024,5 hPa 0,0 l/m 4 min 0 min 453 W/m 19,3 km/h (3 Bft) 97,87 %
06.05.2020 18:10 20,7 C 22,8 C 17,8 C 42 % 1024,5 hPa 0,0 l/m 2 min 0 min 444 W/m 6,4 km/h (2 Bft) 95,74 %
06.05.2020 18:12 20,7 C 22,2 C 17,8 C 40 % 1024,5 hPa 0,0 l/m 2 min 0 min 438 W/m 12,9 km/h (3 Bft) 97,87 %
06.05.2020 18:14 20,7 C 22,2 C 17,8 C 42 % 1024,5 hPa 0,0 l/m 2 min 0 min 432 W/m 6,4 km/h (2 Bft) 97,83 %
06.05.2020 18:16 20,7 C 21,7 C 17,2 C 40 % 1024,5 hPa 0,0 l/m 2 min 0 min 427 W/m 6,4 km/h (2 Bft) 97,87 %
06.05.2020 18:18 20,6 C 21,7 C 17,2 C 42 % 1024,4 hPa 0,0 l/m 2 min 0 min 419 W/m 3,2 km/h (1 Bft) 97,87 %
06.05.2020 18:20 20,6 C 21,7 C 16,7 C 42 % 1024,4 hPa 0,0 l/m 2 min 0 min 414 W/m 3,2 km/h (1 Bft) 95,74 %
06.05.2020 18:22 20,6 C 21,1 C 16,7 C 41 % 1024,4 hPa 0,0 l/m 2 min 0 min 408 W/m 3,2 km/h (1 Bft) 95,74 %
06.05.2020 18:24 20,6 C 21,1 C 16,7 C 40 % 1024,4 hPa 0,0 l/m 2 min 0 min 403 W/m 3,2 km/h (1 Bft) 97,87 %
06.05.2020 18:26 20,6 C 21,1 C 16,7 C 41 % 1024,4 hPa 0,0 l/m 2 min 0 min 395 W/m 6,4 km/h (2 Bft) 97,83 %
06.05.2020 18:28 20,5 C 20,6 C 16,7 C 40 % 1024,3 hPa 0,0 l/m 2 min 0 min 389 W/m 3,2 km/h (1 Bft) 97,87 %
06.05.2020 18:30 20,4 C 20,6 C 16,7 C 40 % 1024,3 hPa 0,0 l/m 2 min 0 min 382 W/m 6,4 km/h (2 Bft) 100,00 %
06.05.2020 18:32 20,3 C 20,6 C 16,1 C 42 % 1024,4 hPa 0,0 l/m 2 min 0 min 376 W/m 0,0 km/h (0 Bft) 100,00 %
06.05.2020 18:34 20,3 C 20,0 C 15,6 C 42 % 1024,4 hPa 0,0 l/m 2 min 0 min 371 W/m 0,0 km/h (0 Bft) 100,00 %
06.05.2020 18:36 20,3 C 20,6 C 15,6 C 45 % 1024,4 hPa 0,0 l/m 2 min 0 min 365 W/m 3,2 km/h (1 Bft) 100,00 %
06.05.2020 18:38 20,3 C 20,6 C 15,6 C 45 % 1024,4 hPa 0,0 l/m 2 min 0 min 359 W/m 3,2 km/h (1 Bft) 100,00 %
06.05.2020 18:40 20,2 C 20,6 C 15,6 C 44 % 1024,3 hPa 0,0 l/m 2 min 0 min 354 W/m 3,2 km/h (1 Bft) 95,74 %
06.05.2020 18:42 20,2 C 20,0 C 15,0 C 44 % 1024,3 hPa 0,0 l/m 2 min 0 min 347 W/m 0,0 km/h (0 Bft) 100,00 %
06.05.2020 18:44 20,2 C 20,0 C 15,0 C 42 % 1024,3 hPa 0,0 l/m 2 min 0 min 340 W/m 6,4 km/h (2 Bft) 100,00 %
06.05.2020 18:46 20,2 C 19,4 C 15,0 C 44 % 1024,3 hPa 0,0 l/m 2 min 0 min 333 W/m 0,0 km/h (0 Bft) 100,00 %
06.05.2020 18:48 20,1 C 19,4 C 14,4 C 45 % 1024,3 hPa 0,0 l/m 2 min 0 min 323 W/m 3,2 km/h (1 Bft) 100,00 %
06.05.2020 18:50 20,1 C 19,4 C 14,4 C 44 % 1024,3 hPa 0,0 l/m 2 min 0 min 316 W/m 3,2 km/h (1 Bft) 100,00 %
06.05.2020 18:52 20,0 C 18,9 C 14,4 C 43 % 1024,3 hPa 0,0 l/m 2 min 0 min 315 W/m 3,2 km/h (1 Bft) 100,00 %
06.05.2020 18:54 19,9 C 18,9 C 14,4 C 44 % 1024,3 hPa 0,0 l/m 2 min 0 min 310 W/m 0,0 km/h (0 Bft) 97,87 %
06.05.2020 18:56 19,8 C 18,3 C 13,9 C 44 % 1024,3 hPa 0,0 l/m 2 min 0 min 302 W/m 6,4 km/h (2 Bft) 100,00 %
06.05.2020 18:58 19,7 C 18,3 C 14,4 C 45 % 1024,3 hPa 0,0 l/m 2 min 0 min 295 W/m 6,4 km/h (2 Bft) 100,00 %
06.05.2020 19:00 19,6 C 17,8 C 14,4 C 44 % 1024,3 hPa 0,0 l/m 2 min 0 min 289 W/m 3,2 km/h (1 Bft) 100,00 %
06.05.2020 19:02 19,5 C 17,2 C 14,4 C 44 % 1024,4 hPa 0,0 l/m 2 min 0 min 283 W/m 9,7 km/h (2 Bft) 100,00 %
06.05.2020 19:04 19,3 C 17,2 C 14,4 C 44 % 1024,3 hPa 0,0 l/m 2 min 0 min 275 W/m 9,7 km/h (2 Bft) 100,00 %
06.05.2020 19:06 19,2 C 16,7 C 14,4 C 44 % 1024,4 hPa 0,0 l/m 2 min 0 min 173 W/m 9,7 km/h (2 Bft) 100,00 %
06.05.2020 19:08 19,1 C 16,7 C 14,4 C 44 % 1024,3 hPa 0,0 l/m 0 min 0 min 70 W/m 3,2 km/h (1 Bft) 100,00 %
06.05.2020 19:10 18,9 C 16,7 C 14,4 C 44 % 1024,4 hPa 0,0 l/m 0 min 0 min 61 W/m 6,4 km/h (2 Bft) 100,00 %
06.05.2020 19:12 18,8 C 16,7 C 14,4 C 44 % 1024,3 hPa 0,0 l/m 0 min 0 min 60 W/m 6,4 km/h (2 Bft) 97,83 %
06.05.2020 19:14 18,7 C 16,1 C 14,4 C 44 % 1024,4 hPa 0,0 l/m 0 min 0 min 60 W/m 6,4 km/h (2 Bft) 100,00 %
06.05.2020 19:16 18,6 C 16,1 C 14,4 C 43 % 1024,4 hPa 0,0 l/m 0 min 0 min 60 W/m 9,7 km/h (2 Bft) 100,00 %
06.05.2020 19:18 18,4 C 16,1 C 14,4 C 43 % 1024,4 hPa 0,0 l/m 0 min 0 min 57 W/m 3,2 km/h (1 Bft) 100,00 %
06.05.2020 19:20 18,3 C 16,1 C 14,4 C 44 % 1024,4 hPa 0,0 l/m 0 min 0 min 53 W/m 6,4 km/h (2 Bft) 100,00 %
06.05.2020 19:22 18,2 C 16,1 C 14,4 C 43 % 1024,4 hPa 0,0 l/m 0 min 0 min 55 W/m 0,0 km/h (0 Bft) 95,74 %
06.05.2020 19:24 18,2 C 16,1 C 13,9 C 46 % 1024,4 hPa 0,0 l/m 0 min 0 min 54 W/m 0,0 km/h (0 Bft) 97,83 %
06.05.2020 19:26 18,1 C 16,1 C 13,9 C 46 % 1024,4 hPa 0,0 l/m 0 min 0 min 54 W/m 6,4 km/h (2 Bft) 97,87 %
06.05.2020 19:28 17,9 C 15,6 C 14,4 C 46 % 1024,4 hPa 0,0 l/m 0 min 0 min 54 W/m 3,2 km/h (1 Bft) 97,87 %
06.05.2020 19:30 17,8 C 15,6 C 13,9 C 45 % 1024,5 hPa 0,0 l/m 0 min 0 min 54 W/m 12,9 km/h (3 Bft) 95,74 %
06.05.2020 19:32 17,8 C 15,6 C 13,9 C 47 % 1024,5 hPa 0,0 l/m 0 min 0 min 54 W/m 6,4 km/h (2 Bft) 97,87 %
06.05.2020 19:34 17,7 C 15,6 C 13,9 C 47 % 1024,4 hPa 0,0 l/m 0 min 0 min 50 W/m 6,4 km/h (2 Bft) 100,00 %
06.05.2020 19:36 17,6 C 15,6 C 13,9 C 47 % 1024,5 hPa 0,0 l/m 0 min 0 min 44 W/m 3,2 km/h (1 Bft) 97,87 %
06.05.2020 19:38 17,5 C 15,6 C 13,9 C 46 % 1024,5 hPa 0,0 l/m 0 min 0 min 38 W/m 3,2 km/h (1 Bft) 95,74 %
06.05.2020 19:40 17,4 C 15,6 C 13,9 C 47 % 1024,5 hPa 0,0 l/m 0 min 0 min 40 W/m 3,2 km/h (1 Bft) 97,87 %
06.05.2020 19:42 17,3 C 15,6 C 13,9 C 48 % 1024,5 hPa 0,0 l/m 0 min 0 min 46 W/m 3,2 km/h (1 Bft) 95,74 %
06.05.2020 19:44 17,2 C 15,0 C 13,9 C 47 % 1024,5 hPa 0,0 l/m 0 min 0 min 44 W/m 3,2 km/h (1 Bft) 97,87 %
06.05.2020 19:46 17,2 C 15,0 C 13,9 C 48 % 1024,4 hPa 0,0 l/m 0 min 0 min 42 W/m 0,0 km/h (0 Bft) 93,62 %
06.05.2020 19:48 17,1 C 15,0 C 13,9 C 48 % 1024,5 hPa 0,0 l/m 0 min 0 min 42 W/m 3,2 km/h (1 Bft) 97,83 %
06.05.2020 19:50 17,0 C 15,0 C 13,3 C 49 % 1024,5 hPa 0,0 l/m 0 min 0 min 40 W/m 3,2 km/h (1 Bft) 93,62 %
06.05.2020 19:52 16,9 C 15,0 C 13,3 C 49 % 1024,5 hPa 0,0 l/m 0 min 0 min 40 W/m 3,2 km/h (1 Bft) 95,74 %
06.05.2020 19:54 16,8 C 15,0 C 13,3 C 47 % 1024,5 hPa 0,0 l/m 0 min 0 min 39 W/m 3,2 km/h (1 Bft) 93,62 %
06.05.2020 19:56 16,8 C 15,0 C 13,3 C 49 % 1024,5 hPa 0,0 l/m 0 min 0 min 39 W/m 3,2 km/h (1 Bft) 95,74 %
06.05.2020 19:58 16,7 C 15,0 C 13,3 C 48 % 1024,6 hPa 0,0 l/m 0 min 0 min 38 W/m 6,4 km/h (2 Bft) 95,65 %
06.05.2020 20:00 16,6 C 15,0 C 13,3 C 47 % 1024,6 hPa 0,0 l/m 0 min 0 min 37 W/m 3,2 km/h (1 Bft) 95,74 %
06.05.2020 20:02 16,6 C 15,0 C 13,3 C 48 % 1024,6 hPa 0,0 l/m 0 min 0 min 33 W/m 9,7 km/h (2 Bft) 95,74 %
06.05.2020 20:04 16,5 C 15,0 C 13,3 C 49 % 1024,6 hPa 0,0 l/m 0 min 0 min 33 W/m 3,2 km/h (1 Bft) 93,62 %
06.05.2020 20:06 16,4 C 15,0 C 13,3 C 49 % 1024,6 hPa 0,0 l/m 0 min 0 min 33 W/m 3,2 km/h (1 Bft) 95,74 %
06.05.2020 20:08 16,4 C 14,4 C 13,3 C 48 % 1024,6 hPa 0,0 l/m 0 min 0 min 33 W/m 3,2 km/h (1 Bft) 93,62 %
06.05.2020 20:10 16,4 C 14,4 C 13,3 C 49 % 1024,6 hPa 0,0 l/m 0 min 0 min 32 W/m 3,2 km/h (1 Bft) 93,48 %
06.05.2020 20:12 16,3 C 14,4 C 13,3 C 50 % 1024,6 hPa 0,0 l/m 0 min 0 min 31 W/m 3,2 km/h (1 Bft) 97,87 %
06.05.2020 20:14 16,3 C 14,4 C 13,3 C 50 % 1024,5 hPa 0,0 l/m 0 min 0 min 29 W/m 0,0 km/h (0 Bft) 93,62 %
06.05.2020 20:16 16,2 C 14,4 C 12,8 C 49 % 1024,6 hPa 0,0 l/m 0 min 0 min 28 W/m 3,2 km/h (1 Bft) 97,87 %
06.05.2020 20:18 16,1 C 14,4 C 12,8 C 49 % 1024,6 hPa 0,0 l/m 0 min 0 min 26 W/m 3,2 km/h (1 Bft) 95,74 %
06.05.2020 20:20 16,1 C 14,4 C 12,8 C 48 % 1024,6 hPa 0,0 l/m 0 min 0 min 26 W/m 6,4 km/h (2 Bft) 93,62 %
06.05.2020 20:22 16,1 C 14,4 C 12,8 C 50 % 1024,6 hPa 0,0 l/m 0 min 0 min 25 W/m 6,4 km/h (2 Bft) 93,48 %
06.05.2020 20:24 16,0 C 14,4 C 12,8 C 49 % 1024,6 hPa 0,0 l/m 0 min 0 min 23 W/m 0,0 km/h (0 Bft) 95,74 %
06.05.2020 20:26 15,9 C 13,9 C 12,8 C 50 % 1024,6 hPa 0,0 l/m 0 min 0 min 23 W/m 3,2 km/h (1 Bft) 95,74 %
06.05.2020 20:28 15,9 C 13,9 C 12,8 C 50 % 1024,6 hPa 0,0 l/m 0 min 0 min 21 W/m 3,2 km/h (1 Bft) 95,12 %
06.05.2020 20:30 15,9 C 13,9 C 12,8 C 50 % 1024,6 hPa 0,0 l/m 0 min 0 min 19 W/m 3,2 km/h (1 Bft) 96,00 %
06.05.2020 20:32 15,8 C 13,9 C 12,8 C 50 % 1024,6 hPa 0,0 l/m 0 min 0 min 19 W/m 3,2 km/h (1 Bft) 94,00 %
06.05.2020 20:34 15,8 C 13,9 C 12,8 C 50 % 1024,7 hPa 0,0 l/m 0 min 0 min 18 W/m 0,0 km/h (0 Bft) 95,65 %
06.05.2020 20:36 15,8 C 13,9 C 12,2 C 51 % 1024,6 hPa 0,0 l/m 0 min 0 min 17 W/m 0,0 km/h (0 Bft) 97,87 %
06.05.2020 20:38 15,7 C 13,3 C 12,2 C 51 % 1024,6 hPa 0,0 l/m 0 min 0 min 16 W/m 3,2 km/h (1 Bft) 95,12 %
06.05.2020 20:40 15,7 C 13,3 C 12,2 C 52 % 1024,7 hPa 0,0 l/m 0 min 0 min 14 W/m 3,2 km/h (1 Bft) 95,74 %
06.05.2020 20:42 15,6 C 13,3 C 12,2 C 52 % 1024,7 hPa 0,0 l/m 0 min 0 min 14 W/m 0,0 km/h (0 Bft) 96,00 %
06.05.2020 20:44 15,6 C 13,3 C 12,2 C 52 % 1024,7 hPa 0,0 l/m 0 min 0 min 12 W/m 3,2 km/h (1 Bft) 95,92 %
06.05.2020 20:46 15,5 C 13,3 C 12,2 C 53 % 1024,7 hPa 0,0 l/m 0 min 0 min 12 W/m 3,2 km/h (1 Bft) 95,74 %
06.05.2020 20:48 15,4 C 13,3 C 12,2 C 52 % 1024,7 hPa 0,0 l/m 0 min 0 min 11 W/m 0,0 km/h (0 Bft) 95,74 %
06.05.2020 20:50 15,4 C 13,3 C 11,7 C 53 % 1024,7 hPa 0,0 l/m 0 min 0 min 11 W/m 6,4 km/h (2 Bft) 91,49 %
06.05.2020 20:52 15,3 C 13,3 C 11,7 C 53 % 1024,7 hPa 0,0 l/m 0 min 0 min 10 W/m 3,2 km/h (1 Bft) 97,56 %
06.05.2020 20:54 15,3 C 12,8 C 11,7 C 54 % 1024,8 hPa 0,0 l/m 0 min 0 min 9 W/m 0,0 km/h (0 Bft) 93,62 %
06.05.2020 20:56 15,2 C 12,8 C 11,7 C 53 % 1024,8 hPa 0,0 l/m 0 min 0 min 8 W/m 3,2 km/h (1 Bft) 100,00 %
06.05.2020 20:58 15,2 C 12,8 C 11,7 C 53 % 1024,8 hPa 0,0 l/m 0 min 0 min 7 W/m 3,2 km/h (1 Bft) 97,87 %
06.05.2020 21:00 15,1 C 12,8 C 11,7 C 53 % 1024,8 hPa 0,0 l/m 0 min 0 min 6 W/m 3,2 km/h (1 Bft) 100,00 %
06.05.2020 21:02 15,1 C 12,8 C 11,7 C 54 % 1024,8 hPa 0,0 l/m 0 min 0 min 5 W/m 0,0 km/h (0 Bft) 100,00 %
06.05.2020 21:04 15,0 C 12,8 C 11,7 C 53 % 1024,8 hPa 0,0 l/m 0 min 0 min 5 W/m 0,0 km/h (0 Bft) 100,00 %
06.05.2020 21:06 14,9 C 12,8 C 11,7 C 53 % 1024,8 hPa 0,0 l/m 0 min 0 min 3 W/m 0,0 km/h (0 Bft) 97,56 %
06.05.2020 21:08 14,9 C 12,8 C 11,1 C 54 % 1024,8 hPa 0,0 l/m 0 min 0 min 0 W/m 3,2 km/h (1 Bft) 100,00 %
06.05.2020 21:10 14,8 C 12,2 C 11,1 C 54 % 1024,8 hPa 0,0 l/m 0 min 0 min 0 W/m 0,0 km/h (0 Bft) 95,74 %
06.05.2020 21:12 14,8 C 12,2 C 11,1 C 55 % 1024,8 hPa 0,0 l/m 0 min 0 min 0 W/m 0,0 km/h (0 Bft) 100,00 %
06.05.2020 21:14 14,7 C 12,2 C 11,1 C 55 % 1024,9 hPa 0,0 l/m 0 min 0 min 0 W/m 0,0 km/h (0 Bft) 100,00 %
06.05.2020 21:16 14,7 C 12,2 C 11,1 C 55 % 1024,9 hPa 0,0 l/m 0 min 0 min 0 W/m 0,0 km/h (0 Bft) 97,87 %
06.05.2020 21:18 14,6 C 11,7 C 10,6 C 56 % 1024,9 hPa 0,0 l/m 0 min 0 min 0 W/m 0,0 km/h (0 Bft) 97,87 %
06.05.2020 21:20 14,5 C 11,7 C 10,6 C 55 % 1024,9 hPa 0,0 l/m 0 min 0 min 0 W/m 0,0 km/h (0 Bft) 100,00 %
06.05.2020 21:22 14,4 C 11,7 C 10,6 C 56 % 1024,9 hPa 0,0 l/m 0 min 0 min 0 W/m 0,0 km/h (0 Bft) 100,00 %
06.05.2020 21:24 14,3 C 11,7 C 10,6 C 56 % 1025,0 hPa 0,0 l/m 0 min 0 min 0 W/m 0,0 km/h (0 Bft) 100,00 %
06.05.2020 21:26 14,3 C 11,7 C 10,6 C 56 % 1025,0 hPa 0,0 l/m 0 min 0 min 0 W/m 0,0 km/h (0 Bft) 97,87 %
06.05.2020 21:28 14,3 C 11,7 C 10,6 C 56 % 1025,0 hPa 0,0 l/m 0 min 0 min 0 W/m 0,0 km/h (0 Bft) 100,00 %
06.05.2020 21:30 14,3 C 11,7 C 10,6 C 56 % 1025,0 hPa 0,0 l/m 0 min 0 min 0 W/m 0,0 km/h (0 Bft) 100,00 %
06.05.2020 21:32 14,3 C 11,7 C 10,6 C 56 % 1025,0 hPa 0,0 l/m 0 min 0 min 0 W/m 0,0 km/h (0 Bft) 100,00 %
06.05.2020 21:34 14,2 C 11,7 C 10,6 C 56 % 1025,0 hPa 0,0 l/m 0 min 0 min 0 W/m 0,0 km/h (0 Bft) 100,00 %
06.05.2020 21:36 14,1 C 11,7 C 10,6 C 56 % 1025,1 hPa 0,0 l/m 0 min 0 min 0 W/m 0,0 km/h (0 Bft) 100,00 %
06.05.2020 21:38 14,0 C 11,7 C 10,0 C 56 % 1025,1 hPa 0,0 l/m 0 min 0 min 0 W/m 0,0 km/h (0 Bft) 100,00 %
06.05.2020 21:40 13,9 C 11,1 C 10,0 C 56 % 1025,1 hPa 0,0 l/m 0 min 0 min 0 W/m 0,0 km/h (0 Bft) 100,00 %
06.05.2020 21:42 13,9 C 11,1 C 10,0 C 56 % 1025,1 hPa 0,0 l/m 0 min 0 min 0 W/m 0,0 km/h (0 Bft) 100,00 %
06.05.2020 21:44 13,8 C 11,1 C 10,0 C 57 % 1025,2 hPa 0,0 l/m 0 min 0 min 0 W/m 0,0 km/h (0 Bft) 100,00 %
06.05.2020 21:46 13,7 C 11,1 C 10,0 C 57 % 1025,2 hPa 0,0 l/m 0 min 0 min 0 W/m 0,0 km/h (0 Bft) 97,87 %
06.05.2020 21:48 13,7 C 11,1 C 10,0 C 57 % 1025,1 hPa 0,0 l/m 0 min 0 min 0 W/m 0,0 km/h (0 Bft) 100,00 %
06.05.2020 21:50 13,6 C 11,1 C 10,0 C 57 % 1025,2 hPa 0,0 l/m 0 min 0 min 0 W/m 0,0 km/h (0 Bft) 100,00 %
06.05.2020 21:52 13,6 C 11,1 C 10,0 C 57 % 1025,3 hPa 0,0 l/m 0 min 0 min 0 W/m 0,0 km/h (0 Bft) 97,87 %
06.05.2020 21:54 13,5 C 11,1 C 10,0 C 57 % 1025,3 hPa 0,0 l/m 0 min 0 min 0 W/m 0,0 km/h (0 Bft) 100,00 %
06.05.2020 21:56 13,4 C 11,1 C 10,0 C 57 % 1025,3 hPa 0,0 l/m 0 min 0 min 0 W/m 0,0 km/h (0 Bft) 100,00 %
06.05.2020 21:58 13,3 C 10,6 C 9,4 C 57 % 1025,2 hPa 0,0 l/m 0 min 0 min 0 W/m 0,0 km/h (0 Bft) 100,00 %
06.05.2020 22:00 13,3 C 10,6 C 9,4 C 57 % 1025,3 hPa 0,0 l/m 0 min 0 min 0 W/m 0,0 km/h (0 Bft) 97,87 %
06.05.2020 22:02 13,2 C 10,6 C 9,4 C 58 % 1025,3 hPa 0,0 l/m 0 min 0 min 0 W/m 0,0 km/h (0 Bft) 100,00 %
06.05.2020 22:04 13,2 C 10,6 C 9,4 C 58 % 1025,3 hPa 0,0 l/m 0 min 0 min 0 W/m 0,0 km/h (0 Bft) 97,87 %
06.05.2020 22:06 13,1 C 10,6 C 9,4 C 58 % 1025,3 hPa 0,0 l/m 0 min 0 min 0 W/m 0,0 km/h (0 Bft) 100,00 %
06.05.2020 22:08 13,1 C 10,6 C 9,4 C 58 % 1025,3 hPa 0,0 l/m 0 min 0 min 0 W/m 0,0 km/h (0 Bft) 100,00 %
06.05.2020 22:10 13,0 C 10,6 C 9,4 C 58 % 1025,3 hPa 0,0 l/m 0 min 0 min 0 W/m 0,0 km/h (0 Bft) 97,56 %
06.05.2020 22:12 12,9 C 10,6 C 9,4 C 58 % 1025,4 hPa 0,0 l/m 0 min 0 min 0 W/m 0,0 km/h (0 Bft) 97,87 %
06.05.2020 22:14 12,9 C 10,6 C 9,4 C 58 % 1025,4 hPa 0,0 l/m 0 min 0 min 0 W/m 0,0 km/h (0 Bft) 97,87 %
06.05.2020 22:16 12,8 C 10,6 C 9,4 C 58 % 1025,4 hPa 0,0 l/m 0 min 0 min 0 W/m 0,0 km/h (0 Bft) 97,87 %
06.05.2020 22:18 12,8 C 10,0 C 8,9 C 59 % 1025,3 hPa 0,0 l/m 0 min 0 min 0 W/m 0,0 km/h (0 Bft) 97,87 %
06.05.2020 22:20 12,7 C 10,0 C 8,9 C 59 % 1025,4 hPa 0,0 l/m 0 min 0 min 0 W/m 0,0 km/h (0 Bft) 98,00 %
06.05.2020 22:22 12,7 C 10,0 C 8,9 C 59 % 1025,3 hPa 0,0 l/m 0 min 0 min 0 W/m 0,0 km/h (0 Bft) 95,65 %
06.05.2020 22:24 12,6 C 10,0 C 8,9 C 59 % 1025,3 hPa 0,0 l/m 0 min 0 min 0 W/m 0,0 km/h (0 Bft) 95,74 %
06.05.2020 22:26 12,6 C 10,0 C 8,9 C 59 % 1025,4 hPa 0,0 l/m 0 min 0 min 0 W/m 0,0 km/h (0 Bft) 98,00 %
06.05.2020 22:28 12,5 C 10,0 C 8,9 C 59 % 1025,4 hPa 0,0 l/m 0 min 0 min 0 W/m 0,0 km/h (0 Bft) 95,74 %
06.05.2020 22:30 12,4 C 10,0 C 8,9 C 59 % 1025,4 hPa 0,0 l/m 0 min 0 min 0 W/m 0,0 km/h (0 Bft) 97,83 %
06.05.2020 22:32 12,4 C 10,0 C 8,9 C 59 % 1025,4 hPa 0,0 l/m 0 min 0 min 0 W/m 0,0 km/h (0 Bft) 97,87 %
06.05.2020 22:34 12,3 C 10,0 C 8,9 C 59 % 1025,4 hPa 0,0 l/m 0 min 0 min 0 W/m 0,0 km/h (0 Bft) 95,74 %
06.05.2020 22:36 12,3 C 10,0 C 8,9 C 60 % 1025,4 hPa 0,0 l/m 0 min 0 min 0 W/m 0,0 km/h (0 Bft) 97,56 %
06.05.2020 22:38 12,2 C 10,0 C 8,9 C 60 % 1025,4 hPa 0,0 l/m 0 min 0 min 0 W/m 0,0 km/h (0 Bft) 95,74 %
06.05.2020 22:40 12,2 C 10,0 C 8,3 C 60 % 1025,4 hPa 0,0 l/m 0 min 0 min 0 W/m 0,0 km/h (0 Bft) 97,87 %
06.05.2020 22:42 12,1 C 10,0 C 8,3 C 60 % 1025,4 hPa 0,0 l/m 0 min 0 min 0 W/m 0,0 km/h (0 Bft) 98,00 %
06.05.2020 22:44 12,1 C 10,0 C 8,3 C 60 % 1025,4 hPa 0,0 l/m 0 min 0 min 0 W/m 0,0 km/h (0 Bft) 100,00 %
06.05.2020 22:46 12,0 C 10,0 C 8,3 C 60 % 1025,4 hPa 0,0 l/m 0 min 0 min 0 W/m 0,0 km/h (0 Bft) 100,00 %
06.05.2020 22:48 11,9 C 10,0 C 8,3 C 60 % 1025,4 hPa 0,0 l/m 0 min 0 min 0 W/m 0,0 km/h (0 Bft) 100,00 %
06.05.2020 22:51 11,8 C 10,0 C 8,3 C 60 % 1025,4 hPa 0,0 l/m 0 min 0 min 0 W/m 0,0 km/h (0 Bft) 97,14 %
06.05.2020 22:52 11,8 C 10,0 C 8,3 C 60 % 1025,4 hPa 0,0 l/m 0 min 0 min 0 W/m 0,0 km/h (0 Bft) 100,00 %
06.05.2020 22:54 11,8 C 9,4 C 8,3 C 60 % 1025,4 hPa 0,0 l/m 0 min 0 min 0 W/m 0,0 km/h (0 Bft) 97,87 %
06.05.2020 22:56 11,7 C 9,4 C 8,3 C 60 % 1025,4 hPa 0,0 l/m 0 min 0 min 0 W/m 0,0 km/h (0 Bft) 97,87 %
06.05.2020 22:58 11,7 C 9,4 C 8,3 C 61 % 1025,4 hPa 0,0 l/m 0 min 0 min 0 W/m 0,0 km/h (0 Bft) 93,62 %
06.05.2020 23:00 11,6 C 9,4 C 8,3 C 61 % 1025,4 hPa 0,0 l/m 0 min 0 min 0 W/m 0,0 km/h (0 Bft) 97,87 %
06.05.2020 23:02 11,6 C 9,4 C 8,3 C 61 % 1025,4 hPa 0,0 l/m 0 min 0 min 0 W/m 0,0 km/h (0 Bft) 95,74 %
06.05.2020 23:04 11,6 C 9,4 C 8,3 C 61 % 1025,4 hPa 0,0 l/m 0 min 0 min 0 W/m 0,0 km/h (0 Bft) 97,83 %
06.05.2020 23:06 11,5 C 9,4 C 8,3 C 61 % 1025,3 hPa 0,0 l/m 0 min 0 min 0 W/m 0,0 km/h (0 Bft) 97,87 %
06.05.2020 23:08 11,4 C 9,4 C 8,3 C 61 % 1025,3 hPa 0,0 l/m 0 min 0 min 0 W/m 0,0 km/h (0 Bft) 97,87 %
06.05.2020 23:10 11,4 C 9,4 C 7,8 C 61 % 1025,4 hPa 0,0 l/m 0 min 0 min 0 W/m 0,0 km/h (0 Bft) 97,87 %
06.05.2020 23:12 11,3 C 9,4 C 7,8 C 61 % 1025,3 hPa 0,0 l/m 0 min 0 min 0 W/m 0,0 km/h (0 Bft) 97,87 %
06.05.2020 23:14 11,3 C 9,4 C 7,8 C 62 % 1025,4 hPa 0,0 l/m 0 min 0 min 0 W/m 0,0 km/h (0 Bft) 95,74 %
06.05.2020 23:16 11,3 C 9,4 C 7,8 C 62 % 1025,4 hPa 0,0 l/m 0 min 0 min 0 W/m 0,0 km/h (0 Bft) 97,83 %
06.05.2020 23:18 11,2 C 9,4 C 7,8 C 62 % 1025,3 hPa 0,0 l/m 0 min 0 min 0 W/m 0,0 km/h (0 Bft) 97,87 %
06.05.2020 23:20 11,2 C 9,4 C 7,8 C 62 % 1025,4 hPa 0,0 l/m 0 min 0 min 0 W/m 0,0 km/h (0 Bft) 97,87 %
06.05.2020 23:22 11,2 C 9,4 C 7,8 C 62 % 1025,4 hPa 0,0 l/m 0 min 0 min 0 W/m 0,0 km/h (0 Bft) 97,87 %
06.05.2020 23:24 11,1 C 9,4 C 7,8 C 63 % 1025,4 hPa 0,0 l/m 0 min 0 min 0 W/m 0,0 km/h (0 Bft) 97,87 %
06.05.2020 23:26 11,1 C 9,4 C 7,8 C 63 % 1025,4 hPa 0,0 l/m 0 min 0 min 0 W/m 0,0 km/h (0 Bft) 97,87 %
06.05.2020 23:28 11,0 C 8,9 C 7,8 C 63 % 1025,4 hPa 0,0 l/m 0 min 0 min 0 W/m 0,0 km/h (0 Bft) 93,48 %
06.05.2020 23:30 11,0 C 8,9 C 7,8 C 63 % 1025,4 hPa 0,0 l/m 0 min 0 min 0 W/m 0,0 km/h (0 Bft) 95,74 %
06.05.2020 23:32 10,9 C 9,4 C 7,8 C 63 % 1025,4 hPa 0,0 l/m 0 min 0 min 0 W/m 0,0 km/h (0 Bft) 93,62 %
06.05.2020 23:34 10,9 C 9,4 C 7,8 C 64 % 1025,4 hPa 0,0 l/m 0 min 0 min 0 W/m 0,0 km/h (0 Bft) 97,87 %
06.05.2020 23:36 10,9 C 9,4 C 7,8 C 64 % 1025,4 hPa 0,0 l/m 0 min 0 min 0 W/m 0,0 km/h (0 Bft) 97,87 %
06.05.2020 23:38 10,8 C 8,9 C 7,8 C 64 % 1025,4 hPa 0,0 l/m 0 min 0 min 0 W/m 0,0 km/h (0 Bft) 97,83 %
06.05.2020 23:40 10,8 C 8,9 C 7,8 C 64 % 1025,5 hPa 0,0 l/m 0 min 0 min 0 W/m 0,0 km/h (0 Bft) 97,87 %
06.05.2020 23:42 10,7 C 8,9 C 7,8 C 64 % 1025,5 hPa 0,0 l/m 0 min 0 min 0 W/m 0,0 km/h (0 Bft) 97,87 %
06.05.2020 23:44 10,7 C 8,9 C 7,8 C 65 % 1025,4 hPa 0,0 l/m 0 min 0 min 0 W/m 0,0 km/h (0 Bft) 95,74 %
06.05.2020 23:46 10,7 C 9,4 C 7,8 C 65 % 1025,4 hPa 0,0 l/m 0 min 0 min 0 W/m 0,0 km/h (0 Bft) 95,74 %
06.05.2020 23:48 10,6 C 9,4 C 7,8 C 65 % 1025,5 hPa 0,0 l/m 0 min 0 min 0 W/m 0,0 km/h (0 Bft) 97,87 %
06.05.2020 23:50 10,6 C 8,9 C 7,8 C 65 % 1025,4 hPa 0,0 l/m 0 min 0 min 0 W/m 0,0 km/h (0 Bft) 93,48 %
06.05.2020 23:52 10,6 C 8,9 C 7,8 C 65 % 1025,5 hPa 0,0 l/m 0 min 0 min 0 W/m 0,0 km/h (0 Bft) 97,87 %
06.05.2020 23:54 10,5 C 8,9 C 7,8 C 65 % 1025,5 hPa 0,0 l/m 0 min 0 min 0 W/m 0,0 km/h (0 Bft) 100,00 %
06.05.2020 23:56 10,4 C 8,9 C 7,8 C 66 % 1025,5 hPa 0,0 l/m 0 min 0 min 0 W/m 0,0 km/h (0 Bft) 97,87 %
06.05.2020 23:58 10,4 C 8,9 C 7,2 C 66 % 1025,6 hPa 0,0 l/m 0 min 0 min 0 W/m 0,0 km/h (0 Bft) 93,62 %
_ Min-Zeit 06:26 05:36 05:32 15:46 00:00 - - - - 00:00 03:34
Minimum _ 3,7 C 2,2 C 1,7 C 37 % 1023,3 hPa - - - - 0,0 km/h (0 Bft) 51,22 %
_ Max-Zeit 17:24 12:28 13:28 07:32 09:10 00:00 12:08 00:00 13:12 14:08 00:00
Maximum _ 21,2 C 26,1 C 30,0 C 89 % 1026,0 hPa 0,0 l/m 4 min 0 min 949 W/m 35,4 km/h
O-SO (5 Bft)
100,00 %
Durchschnitt _ 12,7 C 13,8 C 12,3 C 60 % 1024,9 hPa #0,0 l/m #10:34 h #0 min. 508 W/m 4,4 km/h (1 Bft) 97,40 %
© 2020 W. Hausmann